                ,  0.301,  0.397,  0.494,  0.590,  0.687,  0.784,  0.880,  0.977,  1.073,  1.170,  1.267,  1.363,  1.460,  1.556,  1.653,  1.749,  1.846,  1.943,  2.039,  2.136,  2.232,  2.329,  2.426,  2.522,  2.619,  2.715,  2.812,  2.909,  3.005,  3.102,  3.198,  3.295,  3.392,  3.488,  3.585,  3.681,  3.778,  3.875,  3.971,  4.068,  4.164,  4.261,  4.357,  4.454,  4.551,  4.647,  4.744,  4.840,  4.937,  5.034,  5.130,  5.227,  5.323,  5.420,  5.517,  5.613,  5.710,  5.806,  5.903,  6.000,  6.096,  6.193,  6.289,  6.386,  6.483,  6.579,  6.676,  6.772,  6.869,  6.965,  7.062,  7.159,  7.255,  7.352,  7.448,  7.545,  7.642,  7.738,  7.835,  7.931
2016/03/16 00:00,  999.0,  999.0,   -0.2,    0.1,    0.4,   -0.0,    0.1,    0.0,    0.0,   -0.0,   -0.0,   -0.1,    0.1,    0.3,    0.0,    0.2,   -0.0,    0.0,    0.2,    0.6,   -0.7,   -0.8,   -0.2,    0.0,    0.2,    0.1,   -0.1,   -0.1,    0.3,    0.0,   -0.1,    0.1,    0.1,   -0.1,    0.2,    0.0,  999.0,   -0.2,    0.1,   -0.1,   -0.3,   -0.0,    0.2,    0.2,    0.1,    0.1,   -0.2,   -0.1,    0.2,    0.1,   -0.1,    0.4,    0.3,   -0.1,   -0.1,    0.1,   -0.0,    0.1,   -0.1,    0.0,   -0.3,   -0.2,   -0.2,   -0.1,    0.1,   -0.0,    0.1,    0.4,  999.0,  999.0,  999.0,    0.5,    0.1,  999.0,  999.0,  999.0,  999.0,  999.0,  999.0,  999.0
2016/03/16 00:10,  999.0,  999.0,   -0.1,   -1.2,   -1.8,    0.7,    0.2,  999.0,  999.0,   -0.0,    0.0,    0.0,    0.0,    0.1,    0.0,    0.1,    0.1,    0.1,    0.3,    0.5,    0.4,    0.5,    0.3,   -0.1,   -0.0,    0.0,   -0.0,   -0.1,   -0.0,   -0.0,    0.0,   -0.0,   -0.0,   -0.0,    0.2,    0.0,    0.2,    0.1,    0.1,    0.1,   -0.4,   -0.1,   -0.1,   -0.1,   -0.2,   -0.1,   -0.1,    0.0,    0.1,    0.1,    0.0,    0.2,   -0.2,    0.2,   -0.1,   -0.1,    0.0,    0.1,    0.2,    0.1,   -0.0,   -0.2,   -0.1,   -0.3,   -0.0,   -0.1,    0.1,    0.0,  999.0,   -0.1,  999.0,    0.0,  999.0,  999.0,  999.0,  999.0,  999.0,  999.0,  999.0,  999.0
2016/03/16 00:20,  999.0,  999.0,  999.0,    0.1,    0.2,   -0.0,    0.1,    0.1,   -0.0,   -0.1,   -0.1,    0.0,   -0.0,    0.0,   -0.1,   -0.0,    0.0,    0.2,    0.1,    0.5,    0.3,    0.0,    0.1,   -0.1,   -0.0,    0.0,   -0.1,    0.1,   -0.1,   -0.0,   -0.0,    0.0,   -0.1,   -0.2,    0.0,    0.0,   -0.1,   -0.2,   -0.0,   -0.0,   -0.2,   -0.1,   -0.0,    0.0,   -0.1,   -0.1,   -0.1,    0.0,    0.0,   -0.1,   -0.0,   -0.0,    0.0,    0.2,   -0.1,   -0.0,    0.0,   -0.0,    0.0,    0.0,    0.2,   -0.2,   -0.0,    0.0,   -0.1,   -0.3,    0.1,   -0.3,  999.0,  999.0,    0.2,   -0.1,    0.0,  999.0,  999.0,  999.0,  999.0,  999.0,  999.0,  999.0
2016/03/16 00:30,  999.0,  999.0,  999.0,    0.0,    0.1,    0.1,    0.1,    0.0,    0.1,    0.1,    0.1,    0.0,   -0.1,   -0.1,   -0.0,   -0.2,   -0.2,   -0.0,    0.2,    0.3,    0.3,    0.3,   -0.0,   -0.0,   -0.0,   -0.0,   -0.0,   -0.0,   -0.0,    0.1,    0.1,   -0.0,    0.2,   -0.2,   -0.3,   -0.3,    0.1,  999.0,    0.2,   -0.1,   -0.3,   -0.2,   -0.0,    0.0,   -0.0,   -0.0,   -0.0,   -0.2,   -0.1,    0.1,    0.1,   -0.0,   -0.1,   -0.2,    0.0,    0.0,   -0.2,   -0.1,   -0.0,   -0.1,   -0.1,   -0.1,   -0.4,   -0.3,   -0.1,   -0.1,    0.2,   -0.1,    0.1,   -0.2,  999.0,    0.1,    0.3,    0.0,  999.0,  999.0,  999.0,  999.0,  999.0,  999.0
2016/03/16 00:40,  999.0,  999.0,  999.0,   -0.2,    0.0,    0.1,    0.2,    0.2,  999.0,    0.3,    0.1,    0.1,    0.0,    0.1,    0.1,    0.1,    0.1,   -0.0,    0.1,    0.3,    0.1,    0.2,    0.1,   -0.0,    0.0,    0.0,    0.2,    0.0,   -0.1,    0.0,   -0.1,   -0.1,   -0.0,   -0.0,    0.1,    0.1,   -0.2,    0.2,   -0.1,   -0.1,   -0.2,   -0.1,   -0.1,    0.0,   -0.0,   -0.0,    0.1,    0.0,    0.1,    0.2,   -0.0,    0.0,    0.0,    0.0,    0.0,    0.1,   -0.1,   -0.2,    0.0,    0.1,   -0.2,   -0.0,   -0.0,    0.0,   -0.1,    0.1,    0.2,   -0.1,   -0.0,    0.3,    0.0,    0.1,    0.4,  999.0,  999.0,  999.0,  999.0,  999.0,  999.0,  999.0
2016/03/16 00:50,  999.0,  999.0,  999.0,   -0.0,   -0.0,    0.0,    0.1,    0.1,    0.0,    0.1,    0.1,    0.0,    0.0,    0.0,    0.0,   -0.0,    0.0,   -0.0,   -0.0,    0.2,    0.3,    0.2,    0.0,   -0.0,   -0.0,    0.0,    0.0,   -0.0,    0.0,   -0.1,   -0.1,    0.2,    0.1,   -0.0,   -0.1,   -0.0,    0.1,   -0.0,   -0.1,   -0.2,   -0.2,   -0.1,   -0.1,   -0.1,    0.0,    0.0,   -0.0,   -0.2,   -0.1,   -0.2,    0.1,    0.2,   -0.2,    0.1,    0.1,   -0.0,   -0.0,    0.1,    0.0,    0.1,   -0.1,   -0.2,    0.1,   -0.0,   -0.0,   -0.0,    0.1,    0.3,    0.1,    0.1,    0.2,   -0.0,    0.1,  999.0,  999.0,  999.0,  999.0,  999.0,  999.0,  999.0
2016/03/16 01:00,  999.0,  999.0,   -0.1,   -0.1,    0.1,    0.1,  999.0,  999.0,  999.0,    0.3,    0.1,    0.1,    0.2,    0.0,    0.1,    0.1,   -0.1,    0.0,    0.2,    0.4,    0.8,    1.1,    0.5,    0.1,    0.1,   -0.0,    0.2,    0.0,   -0.0,   -0.0,   -0.1,    0.0,    0.0,    0.0,    0.2,    0.0,   -0.1,   -0.1,   -0.1,   -0.0,   -0.2,   -0.1,   -0.0,   -0.1,   -0.1,   -0.0,   -0.1,    0.1,    0.1,    0.1,   -0.1,   -0.1,    0.1,   -0.1,    0.0,   -0.0,    0.0,    0.1,    0.1,   -0.1,   -0.1,   -0.5,   -0.1,    0.1,    0.1,    0.1,    0.1,    0.2,   -0.2,   -0.4,   -0.9,  999.0,    0.2,   -0.0,  999.0,  999.0,  999.0,  999.0,  999.0,  999.0
2016/03/16 01:10,  999.0,  999.0,   -0.0,    0.0,    0.1,    0.2,    0.3,  999.0,    0.1,   -0.0,    0.3,    0.1,   -0.0,   -0.0,    0.0,    0.0,   -0.0,    0.0,   -0.0,    0.1,    0.1,    0.2,    0.4,    0.0,   -0.0,   -0.0,    0.1,   -0.0,    0.1,    0.1,    0.1,    0.1,    0.0,   -0.0,    0.2,   -0.1,   -0.5,   -0.1,    0.1,   -0.1,   -0.3,   -0.2,    0.1,    0.1,    0.1,    0.0,   -0.0,   -0.0,    0.1,   -0.0,   -0.0,    0.0,   -0.0,   -0.1,   -0.2,   -0.1,    0.4,    0.0,    0.1,   -0.0,    0.1,    0.1,   -0.0,    0.1,    0.1,   -0.0,   -0.0,   -0.1,   -0.2,  999.0,   -0.1,   -0.4,    0.3,  999.0,    0.0,  999.0,  999.0,  999.0,  999.0,  999.0
2016/03/16 01:20,  999.0,  999.0,   -0.2,    0.3,    0.6,    0.3,    0.5,    0.2,  999.0,    0.3,    0.2,    0.2,    0.1,    0.1,    0.1,    0.1,    0.1,   -0.1,   -0.1,   -0.0,    0.1,    0.3,    0.3,    0.0,    0.2,   -0.0,   -0.0,   -0.0,   -0.2,    0.1,    0.1,   -0.0,   -0.0,    0.1,    0.2,    0.2,    0.3,    0.2,   -0.0,    0.0,   -0.2,   -0.1,   -0.0,   -0.0,    0.1,    0.2,    0.0,    0.1,    0.1,   -0.0,    0.0,    0.0,    0.0,   -0.1,    0.1,   -0.2,    0.1,    0.0,    0.1,    0.0,    0.1,   -0.2,   -0.1,   -0.1,   -0.1,   -0.1,    0.0,  999.0,    0.2,  999.0,   -0.4,   -0.0,   -0.0,    0.1,  999.0,  999.0,  999.0,  999.0,  999.0,  999.0
2016/03/16 01:30,  999.0,  999.0,   -0.0,    1.0,    0.4,    0.2,  999.0,  999.0,  999.0,    0.3,    0.2,    0.1,   -0.0,   -0.0,   -0.0,   -0.0,    0.0,   -0.0,   -0.0,   -0.1,   -0.1,    0.0,    0.2,    0.0,    0.0,   -0.2,   -0.1,   -0.0,   -0.0,    0.1,    0.0,   -0.0,    0.2,    0.1,    0.4,   -0.0,    0.2,  999.0,   -0.1,    0.0,   -0.2,   -0.1,   -0.0,    0.1,   -0.1,    0.1,    0.0,    0.1,   -0.2,   -0.2,   -0.1,    0.0,    0.2,   -0.0,   -0.2,    0.0,   -0.1,   -0.1,   -0.1,   -0.1,   -0.1,   -0.1,   -0.1,    0.1,   -0.2,    0.1,    0.3,   -0.1,   -0.3,   -0.3,    0.0,   -0.1,   -0.5,   -0.0,  999.0,  999.0,  999.0,  999.0,  999.0,  999.0
2016/03/16 01:40,  999.0,  999.0,    0.0,    0.1,    0.2,    0.2,    0.2,    0.0,  999.0,    0.0,  999.0,    0.1,    0.0,    0.1,    0.1,   -0.0,    0.0,    0.0,   -0.2,    0.0,   -0.2,   -0.1,    0.0,   -0.0,    0.0,    0.2,    0.0,   -0.0,   -0.0,    0.1,    0.0,    0.1,    0.0,    0.1,    0.1,    0.0,   -0.1,  999.0,   -0.0,    0.1,   -0.3,   -0.3,   -0.1,    0.1,    0.3,   -0.0,    0.1,    0.2,    0.1,   -0.1,    0.1,    0.0,   -0.0,    0.1,    0.0,   -0.0,    0.0,   -0.2,    0.1,   -0.0,   -0.0,   -0.0,   -0.1,   -0.0,    0.2,   -0.1,   -0.1,   -0.4,    0.1,    0.2,    0.3,   -0.2,   -0.1,  999.0,  999.0,  999.0,  999.0,  999.0,  999.0,  999.0
2016/03/16 01:50,  999.0,  999.0,   -0.1,    0.2,    0.2,    0.0,   -0.0,    0.1,    0.1,   -0.0,    0.0,    0.2,    0.0,   -0.0,   -0.1,   -0.0,    0.1,   -0.2,   -0.5,   -0.3,   -0.2,   -0.1,   -0.1,    0.1,    0.0,    0.1,   -0.0,   -0.1,   -0.1,   -0.1,   -0.0,    0.0,   -0.0,   -0.2,    0.0,    0.2,    0.5,    0.0,    0.1,    0.2,   -0.2,   -0.2,   -0.3,   -0.0,    0.1,   -0.1,   -0.1,   -0.1,   -0.0,   -0.0,   -0.1,   -0.2,   -0.1,   -0.0,   -0.1,    0.1,    0.0,   -0.1,   -0.0,   -0.0,   -0.1,    0.1,    0.1,   -0.0,    0.1,   -0.0,    0.1,    0.2,    0.0,    0.4,  999.0,  999.0,  999.0,   -0.0,  999.0,  999.0,  999.0,  999.0,  999.0,  999.0
2016/03/16 02:00,  999.0,  999.0,    0.0,   -0.2,    0.4,    0.4,    0.4,    0.2,  999.0,    0.0,    0.1,    0.1,   -0.0,   -0.0,   -0.1,   -0.0,    0.1,   -0.3,   -0.5,   -0.3,    0.0,   -0.1,   -0.2,    0.1,    0.0,   -0.0,    0.0,   -0.0,    0.1,    0.0,    0.0,   -0.0,    0.1,    0.1,   -0.1,   -0.1,   -0.3,   -0.1,   -0.1,   -0.1,   -0.3,   -0.1,    0.1,   -0.1,   -0.1,   -0.2,   -0.1,   -0.0,   -0.1,   -0.4,   -0.2,    0.0,   -0.0,    0.3,   -0.1,   -0.1,   -0.0,    0.1,   -0.2,   -0.2,    0.2,   -0.0,    0.1,    0.1,    0.1,   -0.1,   -0.1,   -0.2,    0.4,  999.0,    0.0,  999.0,    0.1,    0.0,   -0.3,  999.0,  999.0,  999.0,  999.0,  999.0
2016/03/16 02:10,  999.0,  999.0,    0.1,   -0.1,    0.5,    0.1,    0.2,   -0.0,    0.2,    0.1,    0.1,    0.1,    0.2,    0.1,    0.0,    0.0,    0.2,    0.2,    0.1,    0.1,   -0.1,   -0.1,    0.1,    0.0,   -0.1,    0.0,    0.2,    0.1,    0.0,   -0.0,   -0.2,   -0.1,   -0.0,   -0.1,    0.1,   -0.2,    0.1,    0.2,    0.0,   -0.1,   -0.2,   -0.1,    0.1,    0.1,    0.1,   -0.0,    0.0,    0.2,    0.1,   -0.0,   -0.2,   -0.1,   -0.0,    0.2,   -0.0,   -0.2,   -0.3,   -0.2,   -0.1,   -0.3,    0.1,    0.2,   -0.0,   -0.1,   -0.0,    0.1,   -0.0,   -0.2,   -0.4,  999.0,   -0.2,   -0.3,   -0.4,    0.1,  999.0,  999.0,  999.0,  999.0,  999.0,  999.0
2016/03/16 02:20,  999.0,  999.0,   -0.0,    0.1,    0.4,    0.1,    0.5,    0.3,    0.2,    0.2,    0.2,   -0.1,    0.1,    0.2,    0.3,    0.2,    0.2,    0.4,    0.4,    0.7,    0.4,    0.1,   -0.0,   -0.1,    0.1,   -0.0,   -0.1,   -0.1,    0.1,    0.1,    0.1,    0.1,    0.1,    0.0,   -0.1,  999.0,    0.2,    0.3,    0.1,    0.1,   -0.3,   -0.1,   -0.0,   -0.0,   -0.0,    0.0,   -0.1,   -0.0,   -0.2,    0.1,   -0.1,   -0.1,   -0.1,   -0.1,   -0.0,   -0.1,    0.1,   -0.1,   -0.1,    0.1,   -0.2,   -0.1,   -0.0,    0.0,   -0.1,  999.0,    0.0,    0.1,  999.0,    0.4,    0.4,    0.0,   -0.1,    0.0,  999.0,  999.0,  999.0,  999.0,  999.0,  999.0
2016/03/16 02:30,  999.0,  999.0,    0.3,    0.2,    0.0,    0.1,    0.3,    0.0,    0.0,    0.4,    0.1,    0.0,    0.0,   -0.0,    0.2,    0.1,    0.2,    0.6,    0.8,    0.9,    1.0,    0.4,    0.1,    0.0,    0.1,    0.0,   -0.1,   -0.1,   -0.1,    0.1,    0.1,   -0.2,    0.0,   -0.0,    0.2,    0.2,   -0.1,   -0.2,   -0.1,   -0.1,   -0.3,   -0.5,    0.3,   -0.1,   -0.3,   -0.1,    0.2,    0.0,   -0.0,    0.0,    0.1,    0.2,    0.1,   -0.1,   -0.1,   -0.1,    0.1,   -0.0,    0.0,    0.3,    0.2,   -0.2,   -0.1,    0.2,    0.2,    0.3,    0.5,    0.3,  999.0,  999.0,  999.0,   -0.4,   -0.4,  999.0,  999.0,  999.0,  999.0,  999.0,  999.0,  999.0
2016/03/16 02:40,  999.0,  999.0,   -0.2,   -0.1,   -0.0,    0.1,    0.1,    0.1,   -0.2,    0.1,    0.2,    0.2,    0.2,    0.2,    0.3,    0.2,    0.2,    0.4,    0.9,    0.9,    1.4,    0.8,    0.1,    0.1,    0.2,   -0.2,   -0.0,    0.0,    0.1,   -0.0,    0.0,   -0.0,   -0.0,   -0.1,    0.1,  999.0,   -0.1,   -0.1,    0.1,   -0.0,   -0.4,   -0.4,   -0.1,   -0.0,   -0.0,    0.0,   -0.1,    0.2,    0.1,    0.3,   -0.0,    0.1,   -0.0,   -0.0,   -0.1,    0.1,   -0.1,    0.1,   -0.2,    0.1,   -0.4,    0.1,   -0.1,    0.2,    0.3,  999.0,   -0.5,   -0.0,    0.9,  999.0,  999.0,  999.0,  999.0,  999.0,  999.0,  999.0,  999.0,  999.0,  999.0,  999.0
2016/03/16 02:50,  999.0,  999.0,    0.1,    0.1,   -0.0,    0.2,    0.0,    0.2,  999.0,    0.4,    0.1,    0.1,    0.3,    0.3,    0.3,    0.3,    0.4,    0.6,    1.0,    1.0,    0.6,    0.1,   -0.1,   -0.0,    0.2,   -0.0,   -0.1,   -0.0,    0.0,   -0.1,   -0.0,   -0.1,    0.1,    0.0,    0.4,   -0.0,    0.3,    0.1,    0.4,    0.1,   -0.4,   -0.4,   -0.0,    0.1,    0.1,   -0.1,    0.0,    0.0,   -0.1,  999.0,   -0.0,   -0.1,    0.1,   -0.1,    0.1,   -0.0,   -0.1,   -0.2,    0.2,    0.2,   -0.1,   -0.0,   -0.1,   -0.1,    0.4,    0.2,    0.1,    0.2,  999.0,  999.0,  999.0,  999.0,  999.0,  999.0,  999.0,  999.0,  999.0,  999.0,  999.0,  999.0
2016/03/16 03:00,  999.0,  999.0,   -0.2,   -0.2,   -0.1,   -0.1,    0.1,   -0.0,    0.3,    0.1,    0.1,   -0.0,    0.0,    0.1,    0.1,    0.1,    0.1,    0.3,    0.2,    0.6,    0.3,   -0.0,    0.1,    0.2,    0.2,    0.0,   -0.0,    0.0,   -0.1,    0.1,   -0.0,    0.0,   -0.0,    0.1,   -0.1,   -0.0,   -0.1,   -0.0,   -0.1,    0.1,   -0.2,   -0.1,   -0.2,   -0.1,   -0.1,   -0.0,    0.1,    0.1,   -0.0,   -0.3,    0.1,    0.1,   -0.0,    0.0,    0.0,    0.1,   -0.1,   -0.0,   -0.0,    0.3,    0.1,    0.2,    0.4,    0.0,    0.0,    0.0,    0.3,    0.1,    0.1,  999.0,   -0.2,  999.0,  999.0,  999.0,  999.0,  999.0,  999.0,  999.0,  999.0,  999.0
2016/03/16 03:10,  999.0,  999.0,   -0.1,    0.1,    0.1,   -0.1,  999.0,    0.1,    0.1,    0.0,   -0.0,   -0.0,    0.2,    0.3,    0.3,    0.1,    0.2,    0.3,    0.7,    0.6,    0.2,    0.0,   -0.0,    0.1,    0.0,    0.0,   -0.1,   -0.0,   -0.0,   -0.0,   -0.0,    0.0,   -0.0,   -0.1,   -0.0,   -0.2,    0.0,   -0.4,    0.1,   -0.0,   -0.2,   -0.3,   -0.0,    0.1,    0.0,    0.2,   -0.1,   -0.2,   -0.1,   -0.0,    0.1,   -0.1,    0.0,    0.1,    0.1,    0.2,   -0.1,   -0.1,   -0.2,    0.0,    0.1,   -0.2,   -0.1,   -0.0,   -0.2,   -0.1,    0.0,   -0.1,  999.0,  999.0,  999.0,  999.0,  999.0,  999.0,  999.0,  999.0,  999.0,  999.0,  999.0,  999.0
2016/03/16 03:20,  999.0,  999.0,  999.0,   -0.2,   -0.1,    0.1,   -0.3,  999.0,  999.0,    0.1,    0.1,    0.0,    0.1,    0.0,    0.2,    0.1,    0.3,    0.5,    0.6,    0.2,    0.2,   -0.0,    0.0,    0.1,    0.1,    0.1,    0.2,    0.1,    0.1,    0.0,   -0.0,    0.1,   -0.1,   -0.0,    0.2,    0.0,    0.1,    0.0,   -0.1,    0.1,   -0.2,    0.4,   -0.0,   -0.3,    0.1,    0.2,   -0.0,    0.0,   -0.1,   -0.0,   -0.1,    0.1,    0.1,   -0.0,    0.0,    0.1,    0.3,    0.0,   -0.1,    0.0,    0.3,   -0.7,    0.0,   -0.1,   -0.1,  999.0,   -0.0,  999.0,  999.0,  999.0,  999.0,  999.0,  999.0,  999.0,  999.0,  999.0,  999.0,  999.0,  999.0,  999.0
2016/03/16 03:30,  999.0,  999.0,  999.0,    0.1,    0.2,    0.1,    0.1,    0.4,    0.5,    0.1,    0.0,   -0.0,    0.0,    0.2,    0.5,    0.5,    0.5,    0.5,    0.6,    0.4,    0.0,   -0.0,   -0.0,   -0.1,    0.1,   -0.1,    0.0,   -0.1,   -0.0,   -0.1,    0.0,    0.1,   -0.1,    0.2,    0.4,    0.3,    0.1,   -0.1,   -0.2,   -0.2,   -0.4,   -0.1,    0.0,    0.3,   -0.2,   -0.3,   -0.1,    0.1,    0.2,    0.2,  999.0,   -0.2,    0.1,    0.2,   -0.3,    0.1,   -0.1,    0.1,   -0.1,   -0.1,    0.2,   -0.1,   -0.3,   -0.4,  999.0,  999.0,  999.0,  999.0,  999.0,  999.0,  999.0,  999.0,  999.0,  999.0,  999.0,  999.0,  999.0,  999.0,  999.0,  999.0
2016/03/16 03:40,  999.0,  999.0,    0.1,   -0.1,    0.1,    0.6,  999.0,   -0.0,  999.0,   -0.1,   -0.0,    0.1,    0.0,    0.2,    0.6,    0.8,    0.9,    0.9,    1.0,    0.3,    0.1,   -0.0,    0.1,   -0.1,    0.1,    0.0,    0.2,   -0.0,    0.1,   -0.0,   -0.0,    0.2,   -0.0,   -0.1,   -0.0,  999.0,  999.0,   -0.2,   -0.0,   -0.3,   -0.9,   -0.8,    0.1,    0.0,    0.1,   -0.1,    0.4,    0.1,   -0.2,   -0.2,  999.0,    0.1,    0.1,    0.3,    0.6,    0.3,   -0.4,   -0.2,   -0.0,  999.0,    0.2,    0.3,    0.0,    0.2,   -0.2,  999.0,  999.0,  999.0,  999.0,  999.0,  999.0,  999.0,  999.0,  999.0,  999.0,  999.0,  999.0,  999.0,  999.0,  999.0
2016/03/16 03:50,  999.0,  999.0,   -1.5,  999.0,  999.0,  999.0,  999.0,   -0.3,  999.0,   -0.2,    0.1,    0.1,    0.2,    1.2,    0.7,    1.6,    0.3,    0.2,   -0.1,    0.1,   -0.0,    0.0,   -0.1,   -0.1,    0.1,    0.1,   -0.2,    0.1,   -0.0,    0.0,   -0.1,    0.1,   -0.1,    0.1,    0.1,    0.3,  999.0,    0.1,    0.0,   -0.3,   -0.5,   -0.7,   -0.1,   -0.0,    0.3,   -0.0,   -0.1,   -0.1,   -0.2,    0.2,   -0.1,   -0.4,   -0.2,   -0.4,    0.1,   -0.5,   -0.2,    0.2,    0.1,   -0.1,    0.1,    0.1,  999.0,  999.0,   -0.2,  999.0,  999.0,  999.0,  999.0,  999.0,  999.0,  999.0,  999.0,  999.0,  999.0,  999.0,  999.0,  999.0,  999.0,  999.0
2016/03/16 04:00,  999.0,  999.0,  999.0,  999.0,    0.5,   -0.0,   -0.2,   -0.1,   -0.0,    0.1,    0.4,    1.0,    1.8,    1.8,    0.5,    0.1,   -0.2,   -0.1,   -0.0,   -0.1,    0.0,   -0.2,   -0.2,   -0.1,    0.1,    0.1,   -0.1,   -0.0,   -0.1,   -0.0,    0.1,    0.2,  999.0,   -0.0,   -0.3,  999.0,  999.0,    0.3,   -0.2,   -0.1,   -0.4,  999.0,   -0.5,   -0.2,    0.0,    0.3,   -0.0,   -0.2,   -0.1,    0.3,   -0.2,  999.0,    0.0,    0.4,    0.5,    0.0,   -0.1,    0.2,    0.0,   -0.0,  999.0,   -0.8,  999.0,   -0.7,   -0.2,  999.0,  999.0,  999.0,  999.0,  999.0,  999.0,  999.0,  999.0,  999.0,  999.0,  999.0,  999.0,  999.0,  999.0,  999.0
2016/03/16 04:10,  999.0,    0.4,    1.2,    0.5,   -0.1,   -0.0,   -0.3,   -0.1,   -0.0,    0.1,    0.0,    1.0,    0.0,    0.6,    0.7,    0.5,    0.1,   -0.0,   -0.1,    0.0,    0.2,    0.1,    0.0,    0.2,   -0.1,    0.1,    0.3,   -0.0,   -0.2,    0.1,    0.0,    0.0,   -0.1,   -0.5,   -0.0,    0.5,  999.0,   -0.0,   -0.2,    0.1,   -0.5,    0.0,    0.5,   -0.0,   -0.1,    0.0,   -0.2,   -0.4,    0.0,    0.1,    0.1,   -0.0,    0.1,    0.0,   -0.2,   -0.1,   -0.2,   -0.1,   -0.0,   -0.1,    0.3,   -0.1,  999.0,    0.2,    0.1,  999.0,  999.0,  999.0,  999.0,  999.0,  999.0,  999.0,  999.0,  999.0,  999.0,  999.0,  999.0,  999.0,  999.0,  999.0
2016/03/16 04:20,  999.0,  999.0,    0.3,    0.1,   -0.2,   -0.3,   -0.1,    0.0,    0.0,    0.8,    0.6,   -1.0,   -0.8,    0.3,   -0.3,   -0.4,   -0.5,   -0.1,    0.0,   -0.0,    0.0,    0.0,    0.1,    0.2,    0.2,    0.1,    0.1,    0.0,    0.0,    0.0,    0.1,    0.1,  999.0,  999.0,   -0.2,    0.1,  999.0,    0.1,   -0.1,   -0.2,   -0.3,   -0.3,   -0.3,    0.0,   -0.3,   -0.1,    0.1,    0.2,    0.2,    0.1,   -0.1,   -0.1,    0.3,    0.0,   -0.1,   -0.0,    0.1,   -0.1,    0.1,   -0.0,   -0.2,   -0.1,  999.0,   -0.1,    0.2,    0.2,  999.0,  999.0,  999.0,  999.0,  999.0,  999.0,  999.0,  999.0,  999.0,  999.0,  999.0,  999.0,  999.0,  999.0
2016/03/16 04:30,  999.0,    0.5,    0.4,    0.2,   -0.3,   -0.0,   -0.3,    0.0,    0.4,    0.8,    2.9,    2.1,    2.3,    2.6,    0.7,    0.5,    0.7,    0.3,    0.1,   -0.0,   -0.1,   -0.0,   -0.0,    0.1,   -0.1,   -0.4,   -0.3,   -0.1,   -0.2,   -0.3,   -0.0,    0.1,    0.3,  999.0,    0.2,    0.1,  999.0,   -0.0,    0.2,    0.5,   -0.2,   -0.1,    0.2,    0.2,   -0.0,   -0.1,   -0.2,   -0.0,    0.1,    0.1,    0.1,    0.3,   -0.0,   -0.0,    0.1,    0.1,   -0.0,   -0.1,    0.0,    0.0,   -0.1,    0.1,   -0.2,    0.2,   -0.2,   -0.0,   -0.3,  999.0,   -0.4,  999.0,  999.0,  999.0,  999.0,  999.0,  999.0,  999.0,  999.0,  999.0,  999.0,  999.0
2016/03/16 04:40,  999.0,    1.5,    0.4,  999.0,    0.0,    0.6,    0.2,   -0.1,    2.2,    3.7,    3.5,    2.8,    3.0,  999.0,   -0.6,    0.2,  999.0,   -0.0,   -0.0,   -0.1,    0.0,    0.3,    0.1,    0.0,    0.1,   -0.0,    0.1,   -0.1,   -0.1,    0.1,   -0.1,    0.0,   -0.1,    0.4,  999.0,    0.3,  999.0,    0.1,    0.2,    0.4,   -0.4,   -0.5,    0.3,    0.2,   -0.1,   -0.1,    0.2,    0.3,    0.0,    0.0,    0.0,    0.1,    0.0,   -0.1,   -0.0,    0.2,    0.0,    0.1,    0.0,    0.1,   -0.1,    0.1,   -0.1,    0.1,    0.3,    0.1,    0.8,    0.0,  999.0,  999.0,  999.0,  999.0,  999.0,  999.0,  999.0,  999.0,  999.0,  999.0,  999.0,  999.0
2016/03/16 04:50,  999.0,  999.0,  999.0,  999.0,  999.0,  999.0,    0.3,    1.9,    3.4,    4.3,    5.0,    4.1,    4.6,  999.0,    1.3,    0.7,  999.0,   -0.3,    0.1,    0.1,   -0.0,   -0.1,  999.0,    0.0,   -0.1,   -0.0,  999.0,    0.3,    0.5,  999.0,    0.0,    0.1,   -0.4,  999.0,  999.0,  999.0,  999.0,  999.0,    0.1,  999.0,   -0.3,   -0.3,   -0.2,   -0.0,   -0.3,   -0.1,   -0.0,   -0.1,   -0.1,  999.0,    0.0,    0.1,    0.0,    0.0,   -0.2,    0.1,    0.1,   -0.1,   -0.0,   -0.3,    0.0,   -0.1,   -0.1,    0.2,    0.2,    0.1,   -0.2,   -0.1,  999.0,  999.0,  999.0,  999.0,  999.0,  999.0,  999.0,  999.0,  999.0,  999.0,  999.0,  999.0
2016/03/16 05:00,  999.0,  999.0,  999.0,  999.0,  999.0,  999.0,  999.0,    1.5,    1.8,  999.0,  999.0,    4.0,  999.0,  999.0,    1.0,  999.0,  999.0,   -0.2,   -0.3,   -0.1,    0.0,  999.0,   -0.0,   -0.2,    0.1,   -0.0,    0.2,    0.5,    0.2,    0.7,  999.0,    0.1,   -0.0,    0.2,  999.0,  999.0,  999.0,    0.1,   -0.1,   -0.1,   -0.3,   -0.4,   -0.0,   -0.1,    0.1,   -0.0,    0.2,    0.3,    0.1,  999.0,    0.0,    0.1,   -0.1,   -0.2,    0.1,   -0.1,   -0.0,    0.2,   -0.3,    0.3,    0.0,   -0.1,   -0.2,   -0.3,  999.0,    0.2,    0.1,    0.0,  999.0,  999.0,  999.0,  999.0,  999.0,  999.0,  999.0,  999.0,  999.0,  999.0,  999.0,  999.0
2016/03/16 05:10,  999.0,    0.7,    0.8,  999.0,    0.5,   -0.2,    0.6,    0.4,    1.3,    2.0,    4.2,    4.7,    6.2,  999.0,    3.2,    4.3,  999.0,    0.2,    0.2,  999.0,  999.0,   -0.2,    0.2,    0.3,    0.2,   -0.2,    0.3,    1.2,    0.9,    0.5,  999.0,   -0.3,  999.0,  999.0,   -0.3,  999.0,  999.0,   -0.2,  999.0,   -0.2,   -0.5,   -0.3,   -0.3,   -0.5,    0.1,    0.3,   -0.1,   -0.1,   -0.1,  999.0,    0.3,    0.2,   -0.0,    0.1,    0.0,   -0.0,   -0.1,   -0.1,    0.2,    0.3,   -0.3,   -0.3,    0.2,   -0.1,   -0.0,  999.0,   -0.1,   -0.1,  999.0,    0.1,  999.0,  999.0,  999.0,  999.0,  999.0,  999.0,  999.0,  999.0,  999.0,  999.0
2016/03/16 05:20,  999.0,    0.8,    1.7,    1.8,    0.9,    0.1,   -0.2,   -0.0,    0.2,    0.6,    2.4,    3.7,  999.0,  999.0,    0.5,  999.0,    0.3,    0.1,    0.2,    0.3,    0.6,    0.0,   -0.1,    1.0,    0.5,    0.3,    0.1,   -0.0,   -0.1,  999.0,  999.0,  999.0,  999.0,  999.0,  999.0,  999.0,  999.0,  999.0,   -0.4,  999.0,   -1.3,   -0.7,   -0.1,   -0.1,   -0.1,    0.2,    0.1,  999.0,  999.0,    0.3,    0.0,    0.2,    0.1,   -0.0,    0.4,    0.2,   -0.0,    0.1,   -0.1,    0.3,    0.1,  999.0,    0.2,   -0.3,    0.2,    0.3,   -0.0,  999.0,  999.0,  999.0,  999.0,  999.0,  999.0,  999.0,  999.0,  999.0,  999.0,  999.0,  999.0,  999.0
2016/03/16 05:30,  999.0,    0.4,    1.8,    1.7,    0.6,   -0.3,   -0.2,    0.2,    0.4,    0.5,    2.2,    2.8,    2.1,    1.2,    1.2,    1.4,    1.0,    0.3,    0.1,   -0.1,    0.2,   -0.0,    0.5,    1.1,    0.2,  999.0,   -0.3,    0.1,    0.3,   -0.1,   -0.2,  999.0,  999.0,  999.0,  999.0,  999.0,  999.0,  999.0,    0.0,  999.0,   -0.4,   -0.4,   -0.4,   -0.1,   -0.1,   -0.3,    0.1,   -0.1,    0.0,   -0.3,    0.2,    0.1,    0.2,   -0.0,    0.0,    0.2,   -0.1,   -0.1,    0.0,   -0.2,    0.0,    0.1,    0.2,    0.3,   -0.1,   -0.2,  999.0,  999.0,  999.0,  999.0,  999.0,  999.0,  999.0,  999.0,  999.0,  999.0,  999.0,  999.0,  999.0,  999.0
2016/03/16 05:40,  999.0,    0.5,    1.1,    0.7,    0.2,    0.0,    0.0,    0.0,    0.2,    0.7,    1.7,    2.8,    1.9,    1.0,    0.6,    0.6,    1.1,    0.3,    0.1,    0.1,    0.3,    0.1,    0.2,   -0.2,    0.1,  999.0,    0.0,    0.2,    0.1,   -0.1,   -0.0,    0.1,    0.0,   -0.0,   -0.1,    0.2,  999.0,   -0.4,    0.2,    0.1,   -0.3,   -0.2,  999.0,   -0.1,   -0.1,  999.0,   -0.4,   -0.2,    0.1,   -0.3,   -0.2,   -0.1,    0.2,    0.0,    0.1,   -0.1,    0.1,    0.0,    0.3,    0.2,    0.2,    0.3,    0.1,    0.0,   -0.1,  999.0,  999.0,  999.0,  999.0,  999.0,  999.0,  999.0,  999.0,  999.0,  999.0,  999.0,  999.0,  999.0,  999.0,  999.0
2016/03/16 05:50,  999.0,    1.0,    0.5,  999.0,    0.3,    0.2,    0.1,   -0.2,    1.1,    1.3,    3.0,    3.7,    3.2,    0.6,    0.2,    2.2,    0.9,   -0.0,   -0.0,    0.1,    0.2,   -0.2,    0.2,   -0.1,   -0.1,   -0.5,   -0.2,   -0.0,    0.2,   -0.2,    0.1,   -0.2,    0.0,  999.0,  999.0,  999.0,  999.0,  999.0,    0.2,    0.3,   -0.6,  999.0,    0.3,    0.1,   -0.1,   -0.4,   -0.3,   -0.0,  999.0,  999.0,    0.5,    0.2,    0.3,   -0.1,   -0.1,    0.1,   -0.0,   -0.1,   -0.1,   -0.1,    0.1,    0.2,    0.2,   -0.0,    0.1,  999.0,  999.0,  999.0,  999.0,  999.0,  999.0,  999.0,  999.0,  999.0,  999.0,  999.0,  999.0,  999.0,  999.0,  999.0
2016/03/16 06:00,  999.0,    0.9,    1.7,    0.5,    0.3,   -0.5,   -0.2,    1.8,    0.6,    1.0,    3.3,    4.7,    4.4,    1.6,    0.9,    1.8,    1.7,    0.7,    0.3,    0.2,    0.4,    0.1,  999.0,    0.3,    0.0,    0.0,    0.1,    0.1,    0.2,    0.2,    0.2,    0.1,    0.2,   -0.0,   -0.1,   -0.0,  999.0,  999.0,  999.0,   -0.1,   -0.4,   -0.3,  999.0,  999.0,  999.0,  999.0,  999.0,  999.0,  999.0,  999.0,  999.0,   -0.3,   -0.2,    0.0,    0.0,    0.2,   -0.2,    0.1,   -0.1,  999.0,    0.3,    0.3,    0.0,   -0.2,   -0.0,  999.0,  999.0,  999.0,  999.0,  999.0,  999.0,  999.0,  999.0,  999.0,  999.0,  999.0,  999.0,  999.0,  999.0,  999.0
2016/03/16 06:10,  999.0,    0.7,    0.9,    0.3,    0.1,    0.1,   -0.7,    1.1,    2.1,    2.2,    4.8,    5.8,    6.1,    5.6,    2.1,   -0.2,   -0.5,   -0.9,   -0.6,    0.1,    0.2,    0.1,   -0.0,   -0.3,   -0.2,   -0.2,   -0.2,    0.1,   -0.2,   -0.2,   -0.5,    0.0,   -0.0,  999.0,  999.0,  999.0,  999.0,  999.0,  999.0,  999.0,  999.0,  999.0,  999.0,  999.0,  999.0,  999.0,  999.0,  999.0,  999.0,  999.0,  999.0,  999.0,   -0.2,    0.2,    0.2,    0.1,    0.3,    0.7,  999.0,  999.0,  999.0,    0.4,    0.4,  999.0,   -0.2,  999.0,  999.0,  999.0,  999.0,  999.0,  999.0,  999.0,  999.0,  999.0,  999.0,  999.0,  999.0,  999.0,  999.0,  999.0
2016/03/16 06:20,  999.0,    0.3,    0.2,   -0.1,    0.2,    0.0,    0.2,    0.6,    1.5,    4.0,  999.0,  999.0,    4.5,    5.3,    3.6,  999.0,  999.0,    0.2,    0.6,    0.2,    0.1,    0.1,   -0.0,   -0.2,   -0.3,   -0.1,   -0.1,   -0.4,  999.0,    0.0,  999.0,    0.0,  999.0,  999.0,  999.0,  999.0,  999.0,  999.0,  999.0,  999.0,  999.0,  999.0,  999.0,  999.0,  999.0,  999.0,  999.0,  999.0,  999.0,  999.0,  999.0,  999.0,  999.0,  999.0,  999.0,  999.0,  999.0,  999.0,  999.0,  999.0,  999.0,  999.0,  999.0,  999.0,  999.0,  999.0,  999.0,  999.0,  999.0,  999.0,  999.0,  999.0,  999.0,  999.0,  999.0,  999.0,  999.0,  999.0,  999.0,  999.0
2016/03/16 06:30,  999.0,   -0.3,   -0.1,   -0.3,   -0.1,    0.6,    0.3,    0.0,  999.0,    3.1,  999.0,  999.0,  999.0,    3.3,  999.0,  999.0,  999.0,    1.5,    0.5,    0.3,    0.3,    0.1,   -0.2,   -0.4,    0.0,   -0.0,   -0.3,   -0.1,    0.1,    0.0,    0.1,   -0.1,  999.0,  999.0,  999.0,  999.0,  999.0,  999.0,  999.0,  999.0,  999.0,  999.0,  999.0,  999.0,  999.0,  999.0,  999.0,  999.0,  999.0,  999.0,  999.0,  999.0,  999.0,  999.0,  999.0,  999.0,  999.0,  999.0,  999.0,  999.0,  999.0,  999.0,  999.0,  999.0,  999.0,  999.0,  999.0,  999.0,  999.0,  999.0,  999.0,  999.0,  999.0,  999.0,  999.0,  999.0,  999.0,  999.0,  999.0,  999.0
2016/03/16 06:40,  999.0,  999.0,   -0.1,  999.0,   -0.3,    0.0,    0.3,  999.0,    0.9,  999.0,  999.0,  999.0,  999.0,    3.7,    5.7,    7.8,  999.0,    0.8,    0.2,    0.5,    0.0,   -0.5,  999.0,    0.3,   -0.1,    0.1,   -0.1,   -0.1,    0.0,    0.1,    0.1,   -0.1,  999.0,  999.0,   -0.3,  999.0,  999.0,  999.0,  999.0,  999.0,  999.0,  999.0,  999.0,  999.0,  999.0,  999.0,    0.1,  999.0,   -0.2,  999.0,  999.0,  999.0,    0.1,   -0.0,  999.0,  999.0,  999.0,    0.4,  999.0,  999.0,  999.0,   -0.0,    0.4,  999.0,  999.0,  999.0,  999.0,  999.0,  999.0,  999.0,  999.0,  999.0,  999.0,  999.0,  999.0,  999.0,  999.0,  999.0,  999.0,  999.0
2016/03/16 06:50,  999.0,    0.3,   -0.9,    0.1,   -0.2,  999.0,    0.4,  999.0,  999.0,    3.5,  999.0,    3.9,  999.0,    1.8,  999.0,  999.0,    0.4,    0.2,    0.1,   -0.0,    0.3,    0.4,   -0.0,   -0.1,    0.1,    0.1,   -0.2,    0.1,    0.0,   -0.1,    0.0,   -0.1,    0.1,    0.2,   -0.2,  999.0,    0.0,  999.0,  999.0,  999.0,  999.0,  999.0,  999.0,   -0.1,  999.0,  999.0,  999.0,  999.0,  999.0,    0.1,    0.1,    0.3,    0.1,    0.1,   -0.0,    0.0,   -0.6,   -0.3,    0.2,  999.0,  999.0,  999.0,  999.0,    0.1,    0.5,  999.0,  999.0,  999.0,  999.0,  999.0,  999.0,  999.0,  999.0,  999.0,  999.0,  999.0,  999.0,  999.0,  999.0,  999.0
2016/03/16 07:00,  999.0,  999.0,  999.0,  999.0,  999.0,  999.0,   -0.6,   -0.2,    1.1,  999.0,  999.0,  999.0,  999.0,  999.0,    0.3,   -0.9,    0.3,    0.5,    0.4,    0.1,   -0.3,    0.3,  999.0,  999.0,    1.0,    1.1,    0.5,    0.1,    0.1,   -0.1,   -0.1,    0.0,    0.2,    0.0,    0.0,    0.2,    0.1,   -0.5,   -0.0,    0.0,   -0.3,   -0.2,  999.0,    0.2,    0.3,    0.4,    0.2,   -0.1,   -0.1,   -0.0,    0.1,   -0.1,    0.4,   -0.0,   -0.2,   -0.1,  999.0,    0.3,   -0.2,   -0.2,    0.2,  999.0,    0.1,  999.0,   -0.6,  999.0,  999.0,  999.0,  999.0,  999.0,  999.0,  999.0,  999.0,  999.0,  999.0,  999.0,  999.0,  999.0,  999.0,  999.0
2016/03/16 07:10,  999.0,   -0.1,   -0.2,   -0.7,   -0.0,   -0.1,    0.1,    0.2,   -0.6,  999.0,  999.0,  999.0,    0.6,    0.6,    1.2,    0.7,    0.2,    0.5,    0.6,    0.3,    0.4,    0.0,  999.0,    0.2,    0.4,    0.4,    0.3,    0.2,    0.0,   -0.1,    0.1,   -0.1,   -0.2,   -0.3,   -0.1,    0.3,   -0.1,    0.1,    0.1,   -0.2,   -0.4,   -0.2,    0.0,   -0.3,   -0.2,   -0.1,   -0.2,   -0.3,   -0.0,  999.0,    0.1,   -0.2,   -0.1,    0.1,    0.1,    0.2,    0.1,   -0.0,   -0.0,   -0.2,  999.0,  999.0,    0.2,    0.4,   -0.0,   -0.0,  999.0,  999.0,  999.0,  999.0,  999.0,  999.0,  999.0,  999.0,  999.0,  999.0,  999.0,  999.0,  999.0,  999.0
2016/03/16 07:20,  999.0,    1.0,  999.0,    0.0,   -0.1,   -0.1,    0.3,    0.5,    0.4,    2.6,    6.4,    1.8,    0.5,    1.1,    0.8,    1.1,    0.8,    0.4,    0.3,    0.3,    0.3,    0.7,    0.5,    0.1,    0.1,    0.4,    0.1,    0.0,   -0.0,   -0.2,   -0.1,    0.1,    0.0,   -0.1,   -0.4,   -0.3,  999.0,   -0.3,    0.0,   -0.0,   -0.6,   -0.4,  999.0,    0.0,   -0.1,    0.0,   -0.1,   -0.1,    0.4,   -0.1,    0.3,   -0.1,   -0.7,    0.0,    0.2,   -0.3,   -0.1,    0.1,   -0.2,   -0.4,  999.0,   -0.2,    0.1,   -0.0,  999.0,    0.1,  999.0,  999.0,  999.0,  999.0,  999.0,  999.0,  999.0,  999.0,  999.0,  999.0,  999.0,  999.0,  999.0,  999.0
2016/03/16 07:30,  999.0,    0.9,  999.0,  999.0,  999.0,  999.0,   -0.5,   -0.3,   -0.5,  999.0,  999.0,  999.0,    2.2,    0.1,    0.4,    0.6,    0.7,    0.3,    0.4,    0.3,    0.2,    0.3,    0.8,    0.2,    0.4,    0.3,    0.2,   -0.1,   -0.1,   -0.3,   -0.2,   -0.4,    0.1,   -0.2,  999.0,   -0.0,    0.5,  999.0,    0.1,  999.0,   -0.3,   -0.1,   -0.1,   -0.1,   -0.2,    0.2,    0.1,  999.0,   -0.0,   -0.2,   -0.1,    0.2,    0.0,    0.5,   -0.1,   -0.3,   -0.4,   -0.5,    0.1,   -0.1,    0.1,   -0.1,    0.2,    0.2,   -0.1,  999.0,  999.0,  999.0,  999.0,  999.0,  999.0,  999.0,  999.0,  999.0,  999.0,  999.0,  999.0,  999.0,  999.0,  999.0
2016/03/16 07:40,  999.0,  999.0,  999.0,   -0.4,  999.0,  999.0,   -0.3,    0.1,    0.1,  999.0,    2.0,    2.4,    3.0,    2.7,    2.5,    4.4,    3.7,    1.4,    0.3,    0.4,    0.4,    0.3,  999.0,    0.3,    0.2,    0.2,    0.5,   -0.1,   -0.1,   -0.2,   -0.1,    0.4,   -0.0,   -0.2,   -0.2,  999.0,  999.0,  999.0,  999.0,   -0.1,   -0.1,   -0.3,    0.1,   -0.0,    0.1,   -0.0,   -0.1,   -0.1,   -0.0,  999.0,  999.0,  999.0,   -0.3,    0.0,   -0.3,    0.2,  999.0,    0.5,    0.3,    0.4,    0.3,    0.1,  999.0,    0.4,  999.0,  999.0,  999.0,  999.0,  999.0,  999.0,  999.0,  999.0,  999.0,  999.0,  999.0,  999.0,  999.0,  999.0,  999.0,  999.0
2016/03/16 07:50,  999.0,  999.0,  999.0,  999.0,  999.0,  999.0,   -0.2,    0.2,  999.0,  999.0,    2.8,  999.0,    0.7,  999.0,    4.2,    3.2,    2.0,    0.8,    0.4,    0.5,    0.3,    0.1,    1.0,    0.2,    0.3,   -0.1,    0.1,    0.4,    0.0,    0.1,    0.2,   -0.1,    0.1,   -0.3,  999.0,  999.0,  999.0,  999.0,  999.0,  999.0,   -0.2,  999.0,  999.0,  999.0,    0.3,  999.0,   -0.1,   -0.1,  999.0,  999.0,  999.0,    0.2,   -0.4,    0.0,    0.4,   -0.0,  999.0,  999.0,    0.2,  999.0,    0.0,   -0.1,  999.0,  999.0,  999.0,  999.0,  999.0,  999.0,  999.0,  999.0,  999.0,  999.0,  999.0,  999.0,  999.0,  999.0,  999.0,  999.0,  999.0,  999.0
2016/03/16 08:00,  999.0,   -0.4,  999.0,  999.0,  999.0,  999.0,   -0.9,   -0.3,    0.2,    0.8,    1.0,    1.1,    2.1,    2.0,    1.0,    1.3,    1.6,    1.2,    0.9,    0.5,    0.5,    0.6,    0.9,    1.1,    0.5,    0.3,    0.3,    0.1,    0.2,    0.0,  999.0,   -0.0,  999.0,  999.0,  999.0,  999.0,  999.0,  999.0,  999.0,   -0.0,    0.0,    0.1,  999.0,  999.0,   -0.0,    0.1,  999.0,  999.0,   -0.1,  999.0,   -0.0,  999.0,   -0.0,   -0.1,  999.0,   -0.0,    0.3,    0.1,  999.0,  999.0,  999.0,    0.0,  999.0,  999.0,  999.0,  999.0,  999.0,  999.0,  999.0,  999.0,  999.0,  999.0,  999.0,  999.0,  999.0,  999.0,  999.0,  999.0,  999.0,  999.0
2016/03/16 08:10,  999.0,  999.0,    0.3,   -0.2,  999.0,  999.0,   -0.4,   -0.6,   -1.0,    0.1,    0.8,    1.4,    0.9,    1.4,    1.4,    1.4,    1.7,    0.9,    1.3,    0.8,    0.2,    0.2,    0.2,    0.6,    0.3,    0.2,    0.3,    0.2,    0.2,    0.2,    0.1,   -0.3,    0.4,    0.1,    0.2,  999.0,  999.0,  999.0,  999.0,    0.2,    0.2,  999.0,    0.4,  999.0,  999.0,   -0.1,    0.2,    0.1,    0.2,  999.0,  999.0,   -0.1,   -0.0,   -0.0,    0.1,    0.3,    0.2,   -0.0,   -0.3,    0.1,    0.1,   -0.0,    0.1,    0.2,   -0.3,  999.0,  999.0,  999.0,  999.0,  999.0,  999.0,  999.0,  999.0,  999.0,  999.0,  999.0,  999.0,  999.0,  999.0,  999.0
2016/03/16 08:20,  999.0,    0.2,    0.1,    0.1,  999.0,  999.0,  999.0,   -1.0,   -0.2,   -1.5,   -0.3,   -0.0,    0.1,    2.0,    0.6,    0.6,    1.0,    0.8,    0.3,    0.1,    0.1,    0.2,    0.3,    0.2,    0.3,    0.2,    0.2,   -0.1,    0.0,    0.0,    0.4,   -0.1,  999.0,    0.2,  999.0,   -0.3,  999.0,    0.4,  999.0,    0.3,    0.0,  999.0,    0.4,  999.0,    0.2,    0.3,   -0.1,   -0.0,   -0.1,  999.0,  999.0,  999.0,   -0.3,    0.6,    0.0,    0.3,    0.3,   -0.6,   -0.1,   -0.2,  999.0,    0.2,    0.1,   -0.6,  999.0,  999.0,  999.0,  999.0,  999.0,  999.0,  999.0,  999.0,  999.0,  999.0,  999.0,  999.0,  999.0,  999.0,  999.0,  999.0
2016/03/16 08:30,  999.0,  999.0,  999.0,  999.0,  999.0,  999.0,  999.0,  999.0,  999.0,    1.1,    0.6,    0.3,    0.6,    0.4,    0.1,    0.0,   -0.1,   -0.0,    0.1,   -0.1,   -0.1,   -0.1,   -0.1,   -0.1,    0.0,   -0.1,   -0.2,   -0.1,    0.1,   -0.2,   -0.1,   -0.0,    0.1,   -0.3,  999.0,  999.0,  999.0,  999.0,  999.0,   -0.1,    0.3,   -0.2,   -0.0,    0.4,    0.3,    0.0,   -0.3,   -0.4,   -0.2,  999.0,   -0.1,  999.0,    0.1,    0.4,   -0.1,   -0.1,   -0.2,    0.2,    0.1,    0.1,   -0.1,  999.0,   -0.2,   -0.2,   -0.3,   -0.3,  999.0,  999.0,  999.0,  999.0,  999.0,  999.0,  999.0,  999.0,  999.0,  999.0,  999.0,  999.0,  999.0,  999.0
2016/03/16 08:40,  999.0,   -0.2,   -0.3,   -0.0,    0.4,    0.9,  999.0,   -0.4,    0.1,    0.7,    1.1,    0.2,    0.5,   -0.0,   -0.0,   -0.0,    0.0,   -0.0,    0.2,    0.2,    0.1,    0.2,    0.0,    0.1,    0.0,    0.2,   -0.1,    0.2,    0.1,    0.1,   -0.1,    0.0,   -0.3,   -0.2,    0.1,  999.0,  999.0,  999.0,    0.4,    0.0,    0.1,  999.0,    0.3,   -0.2,    0.1,   -0.0,   -0.1,  999.0,  999.0,  999.0,    0.3,    0.1,  999.0,    0.2,    0.1,    0.0,    0.2,    0.4,    0.2,   -0.6,  999.0,  999.0,   -0.3,   -0.6,   -0.4,   -0.4,   -0.5,  999.0,  999.0,  999.0,  999.0,  999.0,  999.0,  999.0,  999.0,  999.0,  999.0,  999.0,  999.0,  999.0
2016/03/16 08:50,  999.0,  999.0,  999.0,  999.0,  999.0,  999.0,  999.0,  999.0,   -0.6,   -0.6,   -0.7,   -0.3,    0.7,    0.2,    1.4,    0.9,    0.3,    0.5,    0.7,    1.1,    0.9,    0.0,    0.3,    0.5,    0.4,    0.4,    0.5,    0.5,    0.1,   -0.0,   -0.1,   -0.1,   -0.4,   -0.0,  999.0,    0.1,    0.2,  999.0,   -0.0,    0.1,    0.2,   -0.1,  999.0,    0.1,   -0.2,   -0.1,    0.2,  999.0,    0.1,  999.0,   -0.2,    0.0,   -0.2,    0.1,   -0.3,   -0.1,    0.1,   -0.1,   -0.4,  999.0,  999.0,  999.0,  999.0,  999.0,   -0.7,  999.0,  999.0,  999.0,  999.0,  999.0,  999.0,  999.0,  999.0,  999.0,  999.0,  999.0,  999.0,  999.0,  999.0,  999.0
2016/03/16 09:00,  999.0,   -0.3,   -0.2,   -0.5,  999.0,  999.0,    0.3,   -0.1,   -0.3,    0.6,    0.9,    0.5,    0.5,   -0.2,   -0.0,   -0.2,    0.4,   -0.0,    0.0,    0.1,    0.1,   -0.3,   -0.2,   -0.2,   -0.2,    0.1,   -0.0,    0.0,    0.1,   -0.2,   -0.1,    0.2,   -0.1,  999.0,  999.0,  999.0,  999.0,  999.0,  999.0,   -0.0,   -0.3,   -0.4,   -0.2,   -0.1,    0.0,   -0.2,   -0.1,  999.0,  999.0,  999.0,   -0.0,    0.2,  999.0,    0.1,   -0.3,    0.2,    0.6,    0.2,    0.3,   -0.5,   -0.6,  999.0,   -0.2,   -0.1,  999.0,  999.0,  999.0,  999.0,  999.0,  999.0,  999.0,  999.0,  999.0,  999.0,  999.0,  999.0,  999.0,  999.0,  999.0,  999.0
2016/03/16 09:10,  999.0,    0.1,    0.1,    0.1,    0.2,  999.0,    0.4,    0.8,  999.0,    0.3,    0.2,    0.2,    0.2,    0.4,    0.3,   -0.1,   -0.2,    0.0,    0.0,    0.0,   -0.0,   -0.6,   -0.1,   -0.3,   -0.5,   -0.2,   -0.2,   -0.1,    0.0,    0.1,   -0.1,    0.0,    0.2,  999.0,    0.2,  999.0,  999.0,  999.0,   -0.2,    0.5,    0.2,    0.3,   -0.1,    0.2,    0.0,    0.0,    0.1,  999.0,    0.2,  999.0,  999.0,  999.0,  999.0,  999.0,  999.0,  999.0,  999.0,  999.0,  999.0,  999.0,   21.1,   22.1,   24.2,  999.0,  999.0,  999.0,  999.0,  999.0,  999.0,  999.0,  999.0,  999.0,  999.0,  999.0,  999.0,  999.0,  999.0,  999.0,  999.0,  999.0
2016/03/16 09:20,  999.0,  999.0,  999.0,  999.0,  999.0,  999.0,  999.0,  999.0,  999.0,    0.5,    1.1,    0.5,    0.5,    1.0,    0.5,    0.4,    0.3,    0.4,    0.4,    0.2,   -0.1,   -0.3,   -0.0,    0.2,    0.0,    0.2,   -0.1,    0.1,   -0.0,   -0.2,    0.2,    0.1,    0.3,   -0.0,   -0.0,  999.0,    0.3,  999.0,   -0.2,    0.1,   -0.1,  999.0,  999.0,   -0.3,   -0.1,   -0.1,  999.0,  999.0,  999.0,  999.0,  999.0,  999.0,  999.0,  999.0,  999.0,  999.0,  999.0,   20.9,   21.0,   20.7,   21.8,   23.5,   24.8,   26.6,  999.0,  999.0,  999.0,  999.0,  999.0,  999.0,  999.0,  999.0,  999.0,  999.0,  999.0,  999.0,  999.0,  999.0,  999.0,  999.0
2016/03/16 09:30,  999.0,    0.1,   -0.0,   -0.3,   -0.2,   -0.1,    0.3,    0.6,   -0.0,   -0.0,    0.4,    0.1,    0.4,    1.0,    1.8,    1.3,    0.7,    0.3,    0.2,    0.1,    0.1,    0.3,   -0.3,    0.2,    0.0,    0.1,    0.2,   -0.1,    0.3,    0.1,    0.0,    0.0,   -0.0,    0.0,   -0.1,   -0.3,  999.0,   -0.1,  999.0,   -0.4,   -0.1,   -0.0,  999.0,    0.1,  999.0,  999.0,  999.0,  999.0,  999.0,  999.0,  999.0,  999.0,  999.0,  999.0,  999.0,  999.0,   21.7,   20.9,   21.0,   20.9,   21.8,   23.5,   25.7,  999.0,   26.3,  999.0,  999.0,  999.0,  999.0,  999.0,  999.0,  999.0,  999.0,  999.0,  999.0,  999.0,  999.0,  999.0,  999.0,  999.0
2016/03/16 09:40,  999.0,   -0.0,   -0.5,    0.2,   -0.7,   -0.2,   -0.7,   -0.8,    0.6,    0.3,    0.7,    0.2,    0.1,    0.8,    2.0,    1.6,    0.5,    0.3,    0.3,    0.4,    0.3,   -0.2,   -0.2,    0.1,    0.2,   -0.2,   -0.0,    0.1,    0.0,   -0.0,   -0.0,    0.3,   -0.2,   -0.4,  999.0,  999.0,  999.0,  999.0,    0.0,   -0.3,   -0.1,  999.0,    0.1,  999.0,  999.0,  999.0,  999.0,  999.0,  999.0,  999.0,  999.0,  999.0,  999.0,  999.0,  999.0,  999.0,   21.2,   21.5,   20.9,   21.5,   24.0,   25.2,   27.5,  999.0,  999.0,  999.0,  999.0,  999.0,  999.0,  999.0,  999.0,  999.0,  999.0,  999.0,  999.0,  999.0,  999.0,  999.0,  999.0,  999.0
2016/03/16 09:50,  999.0,  999.0,   -0.1,   -0.2,    0.2,   -0.6,   -1.0,   -0.1,   -0.1,   -0.1,   -0.0,    0.2,    0.2,    0.7,    1.5,    1.1,    0.5,    0.2,    0.2,   -0.1,   -0.1,    0.2,    0.2,    0.2,    0.4,    0.1,    0.1,    0.1,   -0.0,    0.1,    0.1,   -0.0,    0.3,   -0.1,    0.3,  999.0,  999.0,   -0.1,  999.0,    0.3,    0.3,  999.0,    0.5,   -0.3,   -0.3,  999.0,   -0.3,  999.0,  999.0,  999.0,  999.0,  999.0,  999.0,  999.0,  999.0,   21.1,   21.2,   21.9,   22.2,   23.2,   25.9,  999.0,   29.4,  999.0,  999.0,  999.0,  999.0,  999.0,  999.0,  999.0,  999.0,  999.0,  999.0,  999.0,  999.0,  999.0,  999.0,  999.0,  999.0,  999.0
2016/03/16 10:00,  999.0,    0.2,    0.1,   -0.3,   -0.6,   -0.4,   -0.8,   -0.5,   -0.2,   -0.2,    0.1,    0.0,    0.3,    1.1,    1.9,    1.3,    0.3,    0.2,    0.0,    0.0,    0.0,    0.0,    0.0,    0.2,    0.0,    0.0,   -0.0,   -0.2,    0.1,    0.1,   -0.1,   -0.2,    0.1,   -0.1,   -0.1,   -0.1,   -0.3,   -0.1,   -0.4,   -0.0,   -0.1,   -0.0,   -0.0,    0.1,    0.1,   -0.1,    0.0,    0.2,   -0.1,  999.0,  999.0,  999.0,  999.0,  999.0,  999.0,   21.5,   21.3,   22.2,   22.7,   22.1,  999.0,  999.0,  999.0,  999.0,  999.0,   12.8,  999.0,  999.0,  999.0,  999.0,  999.0,  999.0,  999.0,  999.0,  999.0,  999.0,  999.0,  999.0,  999.0,  999.0
2016/03/16 10:10,  999.0,  999.0,   -0.3,   -0.0,  999.0,   -0.0,    0.3,  999.0,   -0.1,   -0.0,   -0.0,    0.1,    0.2,    0.7,    1.3,    1.1,    0.2,    0.1,   -0.0,    0.0,    0.2,    0.2,    0.0,    0.0,    0.0,   -0.1,   -0.0,   -0.0,    0.1,   -0.2,   -0.0,    0.2,    0.0,    0.3,   -0.1,    0.2,   -0.4,   -0.0,   -0.1,    0.0,   -0.1,   -0.1,    0.0,    0.2,    0.1,    0.1,   -0.1,   -0.0,   -0.0,   -0.2,    0.2,   -0.1,   -0.5,   -1.0,  999.0,  999.0,  999.0,  999.0,  999.0,  999.0,  999.0,  999.0,  999.0,  999.0,  999.0,  999.0,  999.0,  999.0,  999.0,  999.0,  999.0,  999.0,  999.0,  999.0,  999.0,  999.0,  999.0,  999.0,  999.0,  999.0
2016/03/16 10:20,  999.0,   -0.4,    0.2,    0.1,  999.0,  999.0,   -0.1,    0.1,   -0.1,    0.1,    0.2,    0.1,    0.3,    0.2,    0.2,   -0.0,   -0.1,    0.1,    0.0,    0.1,   -0.1,   -0.1,    0.0,   -0.1,    0.1,   -0.1,   -0.1,   -0.0,    0.1,   -0.0,   -0.0,   -0.0,    0.3,    0.1,    0.0,   -0.1,  999.0,   -0.4,   -0.1,   -0.4,   -1.0,   -0.3,    0.2,    0.1,   -0.1,    0.2,   -0.0,    0.2,    0.2,   -0.1,    0.1,   -0.3,   -0.8,   -1.0,   -1.0,   -2.7,   -2.6,  999.0,  999.0,  999.0,  999.0,  999.0,  999.0,  999.0,  999.0,    5.4,  999.0,  999.0,  999.0,  999.0,  999.0,  999.0,  999.0,  999.0,  999.0,  999.0,  999.0,  999.0,  999.0,  999.0
2016/03/16 10:30,  999.0,  999.0,   -0.2,   -0.3,   -0.1,    0.1,  999.0,  999.0,  999.0,    0.1,    0.7,    0.4,    0.3,    0.3,    0.5,    0.6,    0.2,    0.1,    0.0,    0.1,   -0.0,    0.0,   -0.1,   -0.1,   -0.0,   -0.1,   -0.1,   -0.0,    0.0,   -0.2,   -0.1,    0.1,   -0.1,   -0.0,   -0.1,   -0.2,    0.0,   -0.2,    0.0,    0.0,   -0.2,   -0.2,    0.1,    0.1,    0.1,    0.0,   -0.1,   -0.0,    0.1,   -0.0,    0.1,   -0.4,   -0.4,   -0.9,   -1.4,   -2.5,   -3.0,   -1.8,   -1.2,  999.0,  999.0,  999.0,  999.0,  999.0,  999.0,  999.0,  999.0,  999.0,  999.0,  999.0,  999.0,  999.0,  999.0,  999.0,  999.0,  999.0,  999.0,  999.0,  999.0,  999.0
2016/03/16 10:40,  999.0,  999.0,    0.1,    0.2,  999.0,    0.2,    0.4,    0.0,  999.0,    0.0,    0.1,    0.0,   -0.2,   -0.2,   -0.2,   -0.3,   -0.2,   -0.1,    0.0,    0.1,   -0.1,    0.1,   -0.2,    0.1,   -0.1,   -0.0,    0.1,    0.2,    0.0,    0.1,   -0.1,   -0.1,   -0.0,    0.0,    0.0,    0.0,   -0.2,   -0.0,   -0.0,   -0.3,   -0.3,   -0.2,   -0.1,    0.1,   -0.0,   -0.0,    0.0,    0.1,    0.0,   -0.0,   -0.2,   -0.2,   -0.6,   -0.9,   -1.4,   -2.8,   -3.1,   -2.8,  999.0,  999.0,  999.0,  999.0,  999.0,  999.0,  999.0,  999.0,  999.0,  999.0,  999.0,  999.0,  999.0,  999.0,  999.0,  999.0,  999.0,  999.0,  999.0,  999.0,  999.0,  999.0
2016/03/16 10:50,  999.0,  999.0,    0.0,    0.1,    0.1,    0.0,    0.0,    0.2,    0.0,    0.1,    0.3,    0.3,    0.3,    0.6,    0.2,    0.0,    0.1,   -0.0,   -0.1,   -0.0,    0.0,    0.1,   -0.1,    0.0,    0.0,   -0.0,   -0.1,    0.1,   -0.1,   -0.2,   -0.0,   -0.2,    0.0,    0.0,    0.2,   -0.2,    0.1,   -0.1,   -0.1,   -0.3,   -0.6,   -0.3,   -0.0,   -0.0,    0.1,    0.1,   -0.0,    0.1,   -0.0,    0.1,   -0.1,   -0.2,  999.0,  999.0,  999.0,  999.0,    0.8,  999.0,  999.0,  999.0,  999.0,  999.0,  999.0,  999.0,  999.0,  999.0,  999.0,  999.0,  999.0,  999.0,  999.0,  999.0,  999.0,  999.0,  999.0,  999.0,  999.0,  999.0,  999.0,  999.0
2016/03/16 11:00,  999.0,  999.0,   -0.5,    0.4,    0.5,    0.5,    0.1,    0.3,   -0.1,   -0.0,    0.5,    0.6,    0.5,    1.0,    1.1,    0.7,    0.3,    0.1,    0.1,    0.0,    0.1,    0.2,    0.0,    0.0,    0.1,    0.0,    0.1,    0.0,    0.1,   -0.2,   -0.2,    0.1,    0.1,   -0.1,    0.1,   -0.0,   -0.1,   -0.0,    0.1,   -0.2,   -0.4,    0.1,    0.0,   -0.1,    0.0,    0.1,   -0.0,    0.2,   -0.0,   -0.1,   -0.4,  999.0,  999.0,  999.0,    7.0,    6.9,    6.0,    7.6,    9.0,    9.1,   10.4,   10.8,   12.0,   13.3,  999.0,  999.0,  999.0,  999.0,  999.0,  999.0,  999.0,  999.0,  999.0,  999.0,  999.0,  999.0,  999.0,  999.0,  999.0,  999.0
2016/03/16 11:10,  999.0,  999.0,  999.0,    0.6,    0.1,  999.0,    0.2,  999.0,  999.0,    0.3,    0.7,    0.9,    0.9,    0.7,    0.4,    0.3,    0.1,   -0.2,   -0.1,   -0.1,   -0.2,   -0.1,    0.2,    0.1,    0.1,   -0.1,    0.0,   -0.0,   -0.1,    0.0,    0.1,   -0.0,   -0.1,    0.0,   -0.1,   -0.1,   -0.1,   -0.2,   -0.1,   -0.3,   -0.3,   -0.3,   -0.1,   -0.1,    0.0,   -0.1,   -0.1,   -0.2,   -0.1,    0.0,  999.0,  999.0,  999.0,  999.0,  999.0,   16.5,   17.9,   20.6,   21.9,   18.5,  999.0,  999.0,  999.0,  999.0,  999.0,  999.0,  999.0,  999.0,  999.0,  999.0,  999.0,  999.0,  999.0,  999.0,  999.0,  999.0,  999.0,  999.0,  999.0,  999.0
2016/03/16 11:20,  999.0,  999.0,    0.1,   -0.1,   -0.2,    0.0,  999.0,  999.0,  999.0,    0.3,    0.4,    0.5,    0.5,    0.7,    0.5,    0.2,   -0.0,  999.0,   -0.0,    0.1,    0.1,    0.0,    0.0,   -0.0,   -0.1,   -0.0,    0.1,    0.1,   -0.0,    0.2,   -0.0,    0.0,   -0.0,    0.1,   -0.0,   -0.1,   -0.1,    0.0,   -0.0,   -0.1,   -0.4,   -0.4,   -0.2,    0.0,    0.1,   -0.0,   -0.0,    0.3,    0.1,  999.0,  999.0,  999.0,   18.1,   17.6,   18.6,   20.4,   22.4,   24.5,   25.8,  999.0,  999.0,  999.0,  999.0,  999.0,  999.0,  999.0,  999.0,  999.0,  999.0,  999.0,  999.0,  999.0,  999.0,  999.0,  999.0,  999.0,  999.0,  999.0,  999.0,  999.0
2016/03/16 11:30,  999.0,  999.0,   -0.0,    0.1,  999.0,  999.0,  999.0,  999.0,  999.0,    0.4,    0.2,    0.3,    0.7,    0.9,    0.5,    0.1,   -0.0,   -0.1,    0.0,    0.2,   -0.0,    0.1,   -0.0,   -0.1,   -0.0,   -0.2,   -0.1,   -0.1,    0.1,    0.0,    0.0,   -0.1,    0.1,   -0.0,   -0.0,    0.0,   -0.1,   -0.0,   -0.0,   -0.2,   -0.2,   -0.1,    0.2,    0.2,  999.0,  999.0,  999.0,  999.0,  999.0,   17.5,   17.7,   17.5,   17.5,   17.3,   18.7,  999.0,  999.0,  999.0,  999.0,  999.0,  999.0,  999.0,  999.0,  999.0,   -2.0,   -1.3,   -0.8,   -0.3,   -0.3,   -0.1,   -0.2,   -0.1,  999.0,   -0.5,   -0.1,  999.0,  999.0,  999.0,  999.0,  999.0
2016/03/16 11:40,  999.0,  999.0,  999.0,   -0.0,   -0.1,    0.2,    0.0,    0.2,    0.2,    0.1,    0.1,    0.3,    0.2,    0.7,    0.3,    0.1,   -0.0,    0.0,    0.1,    0.0,    0.1,    0.1,    0.1,    0.0,   -0.2,   -0.1,    0.0,   -0.2,   -0.0,    0.1,    0.1,    0.1,   -0.1,    0.1,    0.1,    0.0,    0.1,    0.1,   -0.0,    0.0,   -0.1,   -0.1,   -0.0,  999.0,  999.0,  999.0,  999.0,  999.0,  999.0,  999.0,  999.0,   18.0,   17.8,   18.6,  999.0,  999.0,  999.0,  999.0,  999.0,   -0.6,   -0.3,   -0.2,   -0.5,   -0.2,   -0.0,   -0.2,   -0.3,    0.2,   -0.3,   -0.3,   -0.1,   -0.2,  999.0,   -0.2,    0.3,  999.0,  999.0,  999.0,  999.0,  999.0
2016/03/16 11:50,  999.0,  999.0,   -0.1,    0.0,   -0.1,    0.1,   -0.4,  999.0,    0.0,    2.4,    3.2,    0.1,    0.4,    0.7,    0.3,    0.2,    0.2,    0.0,    0.1,    0.0,    0.1,    0.0,    0.0,   -0.0,    0.0,   -0.1,    0.0,   -0.2,    0.2,    0.2,   -0.0,   -0.1,   -0.1,   -0.0,   -0.1,   -0.1,   -0.1,   -0.2,   -0.1,   -0.1,   -0.1,   -0.2,    0.0,    0.1,    0.1,   -0.1,   -0.3,   -0.4,   -0.4,   -0.4,   -0.3,   -0.5,    2.7,   -0.4,   -0.3,   -0.6,   -0.6,   -0.4,   -0.4,   -0.4,   -0.5,   -0.3,   -0.3,   -0.3,   -0.4,   -0.4,   -0.4,   -0.1,   -0.3,   -0.3,    0.3,    0.1,  999.0,  999.0,   -0.1,  999.0,  999.0,  999.0,  999.0,  999.0
2016/03/16 12:00,  999.0,  999.0,  999.0,   -0.3,    0.0,   -0.0,  999.0,    0.0,  999.0,    0.3,    0.3,    0.3,    0.6,    0.5,    0.2,   -0.0,    0.1,    0.1,   -0.0,   -0.0,   -0.0,    0.0,   -0.0,   -0.0,    0.1,    0.0,   -0.0,   -0.1,    0.1,    0.1,    0.0,    0.0,   -0.0,   -0.1,   -0.0,    0.1,   -0.1,   -0.1,   -0.1,   -0.0,   -0.2,   -0.2,    0.0,    0.1,   -0.0,   -0.0,   -0.1,   -0.2,   -0.2,   -0.4,   -0.7,   -1.8,   -1.5,   -1.5,   -0.7,   -0.9,   -1.6,   -0.8,   -0.9,   -1.4,   -0.9,   -1.3,   -1.4,   -0.4,   -0.3,   -0.4,    0.1,    0.1,   -0.2,   -0.1,   -0.3,  999.0,  999.0,   -0.0,    0.2,  999.0,  999.0,  999.0,  999.0,  999.0
2016/03/16 12:10,  999.0,  999.0,   -0.1,   -0.1,   -0.5,    0.1,   -0.3,    0.1,    0.0,   -0.0,    0.3,    0.3,    0.2,    0.0,   -0.1,   -0.1,    0.0,    0.1,   -0.1,   -0.1,   -0.0,   -0.1,   -0.1,   -0.1,    0.1,    0.0,    0.1,   -0.0,   -0.1,    0.0,    0.1,    0.0,   -0.0,    0.1,    0.0,    0.1,   -0.0,   -0.1,   -0.1,   -0.1,   -0.2,   -0.1,    0.0,    0.0,   -0.0,   -0.2,   -0.4,   -0.5,   -1.1,   -2.0,    0.8,   -0.5,    0.2,    0.7,    1.3,    1.1,    2.2,    4.1,    3.3,  999.0,    3.2,   -1.1,   -0.8,   -0.7,   -0.9,   -0.4,   -0.1,   -0.2,   -0.5,  999.0,   -0.9,   -0.4,  999.0,   -0.0,  999.0,  999.0,  999.0,  999.0,  999.0,  999.0
2016/03/16 12:20,  999.0,  999.0,   -0.0,    0.0,    0.2,  999.0,    0.1,  999.0,  999.0,    0.1,    0.1,    0.1,   -0.2,   -0.2,   -0.1,   -0.0,   -0.0,   -0.0,    0.0,   -0.0,   -0.1,    0.1,    0.0,    0.0,   -0.0,   -0.1,   -0.1,    0.0,   -0.0,   -0.0,    0.1,    0.1,    0.1,   -0.0,   -0.1,    0.1,    0.1,   -0.1,    0.0,   -0.0,    0.1,    0.0,    0.1,   -0.0,   -0.1,   -0.5,   -0.7,    4.9,    5.1,    4.8,    5.2,    4.3,    5.0,    3.2,    4.6,    5.4,    5.1,  999.0,  999.0,    4.3,   -0.7,    2.4,    2.8,  999.0,   -1.2,   -0.8,   -0.1,   -0.6,  999.0,  999.0,   -0.9,   -0.9,   -0.8,   -0.2,  999.0,  999.0,  999.0,  999.0,  999.0,  999.0
2016/03/16 12:30,  999.0,  999.0,   -0.0,   -0.1,    0.6,   -0.1,   -0.1,  999.0,    0.1,    0.1,    0.0,    0.0,   -0.2,   -0.2,   -0.0,    0.0,    0.1,    0.0,   -0.0,    0.1,   -0.1,   -0.0,    0.0,    0.3,    0.1,    0.1,    0.1,    0.1,    0.0,    0.1,   -0.1,   -0.0,    0.1,    0.1,   -0.2,    0.1,    0.1,   -0.0,    0.0,   -0.2,   -0.1,   -0.3,   -0.2,  999.0,  999.0,  999.0,    6.2,    6.7,    7.5,    7.7,    8.5,    8.1,    9.5,    9.8,   10.3,  999.0,  999.0,  999.0,   -0.2,   -0.3,   -1.0,   -1.0,   -1.3,   -0.8,   -0.8,   -0.9,  999.0,   -0.7,  999.0,   -0.3,   -0.6,   -0.2,  999.0,  999.0,    0.1,  999.0,  999.0,  999.0,  999.0,  999.0
2016/03/16 12:40,  999.0,  999.0,   -0.0,    0.0,  999.0,    0.0,    0.0,  999.0,  999.0,    0.0,    0.2,   -0.0,   -0.1,   -0.0,   -0.1,    0.0,    0.1,   -0.0,   -0.1,    0.1,    0.0,   -0.0,   -0.0,    0.1,    0.1,    0.1,   -0.1,    0.0,   -0.1,   -0.1,    0.0,    0.1,    0.0,    0.2,   -0.1,    0.0,    0.0,    0.1,    0.0,    0.1,    0.3,    0.1,   -0.1,  999.0,  999.0,  999.0,    7.1,    7.4,    7.3,    7.5,    8.4,    9.2,   10.6,   10.3,   11.1,   11.9,   11.8,  999.0,  999.0,  999.0,  999.0,   -0.6,   -1.6,   -0.9,  999.0,   -0.4,  999.0,   -0.9,   -0.6,  999.0,  999.0,  999.0,  999.0,  999.0,  999.0,  999.0,  999.0,  999.0,  999.0,  999.0
2016/03/16 12:50,  999.0,  999.0,   -0.0,   -0.1,   -0.1,    0.0,  999.0,  999.0,  999.0,    0.1,    0.4,    0.2,    0.2,    0.2,    0.3,    0.4,    0.1,    0.2,    0.0,   -0.0,   -0.0,   -0.0,   -0.0,    0.1,    0.1,    0.1,   -0.1,   -0.1,    0.1,   -0.0,   -0.1,    0.1,    0.2,    0.2,    0.1,   -0.1,    0.0,    0.0,    0.2,    0.1,    0.0,    0.1,    0.2,    0.1,    0.0,  999.0,  999.0,  999.0,  999.0,    8.8,   10.7,   10.5,   11.4,   11.6,   11.9,   11.9,   11.1,  999.0,  999.0,    2.4,    3.1,    4.6,  999.0,  999.0,    3.1,  999.0,  999.0,  999.0,  999.0,  999.0,  999.0,  999.0,  999.0,  999.0,  999.0,  999.0,  999.0,  999.0,  999.0,  999.0
2016/03/16 13:00,  999.0,  999.0,   -0.1,   -0.3,   -0.4,  999.0,   -0.3,    0.0,  999.0,    0.1,    0.4,    0.3,    0.4,    0.5,    0.2,    0.3,    0.1,    0.1,    0.2,    0.1,    0.1,    0.1,    0.0,    0.0,    0.2,    0.2,    0.1,    0.2,    0.2,    0.0,   -0.1,   -0.1,    0.0,   -0.0,   -0.0,    0.1,    0.1,   -0.0,   -0.1,   -0.0,    0.1,    0.1,    0.0,    0.2,    0.1,    0.0,   -0.5,  999.0,  999.0,  999.0,  999.0,  999.0,   11.8,   11.4,   10.8,   10.6,  999.0,    9.9,   10.5,   10.2,   11.7,   10.2,  999.0,   10.8,  999.0,  999.0,  999.0,  999.0,  999.0,  999.0,  999.0,  999.0,  999.0,  999.0,  999.0,  999.0,  999.0,  999.0,  999.0,  999.0
2016/03/16 13:10,  999.0,  999.0,    0.1,   -0.1,    0.0,   -0.0,  999.0,  999.0,  999.0,    0.2,    0.6,    0.5,    0.5,    0.6,    0.5,    0.3,    0.1,    0.3,    0.1,    0.2,    0.1,   -0.1,    0.1,    0.1,   -0.1,    0.2,   -0.0,    0.1,   -0.1,   -0.0,    0.1,    0.2,   -0.3,    0.1,    0.2,    0.2,   -0.0,    0.0,   -0.0,   -0.1,    0.1,    0.3,    0.3,    0.2,    0.2,   -0.1,  999.0,  999.0,  999.0,  999.0,  999.0,   10.3,   10.4,   10.7,   10.8,  999.0,  999.0,  999.0,  999.0,  999.0,  999.0,  999.0,  999.0,  999.0,   -0.3,  999.0,  999.0,  999.0,   -0.8,  999.0,  999.0,  999.0,  999.0,  999.0,  999.0,  999.0,  999.0,  999.0,  999.0,  999.0
2016/03/16 13:20,  999.0,  999.0,   -0.2,   -0.1,   -1.1,    0.0,    0.2,    0.1,    0.1,    0.3,    0.7,    0.9,    0.6,    0.3,    0.4,    0.3,    0.2,    0.1,    0.1,   -0.2,   -0.0,    0.1,    0.2,    0.3,   -0.1,    0.0,   -0.0,    0.1,   -0.0,    0.1,    0.0,    0.1,   -0.2,   -0.1,    0.2,    0.0,    0.3,    0.9,    1.4,    0.6,    0.1,    0.1,    0.5,    0.3,    0.2,    0.1,   -0.1,   -0.1,   -0.0,   -0.1,   -0.1,   -0.5,   -0.6,   -0.5,   -0.4,   -0.2,   -0.0,   -0.2,   -0.3,   -0.4,   -0.6,   -1.0,   -0.9,   -0.6,   -0.7,   -0.6,   -0.6,   -0.1,    0.1,  999.0,  999.0,   -0.1,  999.0,   -0.2,  999.0,  999.0,  999.0,  999.0,  999.0,  999.0
2016/03/16 13:30,  999.0,  999.0,  999.0,    0.1,  999.0,    0.1,    0.1,  999.0,    0.2,    0.4,    0.7,    0.9,    0.6,    0.2,   -0.2,   -0.2,   -0.0,    0.2,    0.0,    0.0,    0.1,    0.1,    0.1,    0.2,    0.1,   -0.0,    0.1,   -0.2,   -0.1,    0.2,   -0.1,    0.0,   -0.1,   -0.1,   -0.1,    0.1,    1.3,    1.1,    1.0,    0.3,    0.2,   -0.1,    0.1,    0.1,    0.1,   -0.1,   -0.1,   -0.1,   -0.1,   -0.3,   -0.2,   -0.3,   -0.2,   -0.1,   -0.2,   -0.1,   -0.1,    0.1,    0.1,    0.1,   -0.1,   -0.0,   -0.4,    0.1,    0.1,   -0.2,    0.3,   -0.2,   -0.1,  999.0,  999.0,   -0.6,   -0.5,  999.0,  999.0,  999.0,  999.0,  999.0,  999.0,  999.0
2016/03/16 13:40,  999.0,  999.0,  999.0,  999.0,   -0.1,    0.0,    0.2,    0.1,    0.2,    0.3,    0.7,    0.5,    0.5,    0.3,    0.3,    0.2,   -0.0,    0.0,    0.0,    0.1,    0.1,    0.1,    0.2,    0.1,    0.1,   -0.1,    0.0,    0.2,    0.0,   -0.1,    0.2,    0.1,   -0.1,    0.2,   -0.2,    0.2,    0.2,  999.0,    1.1,    0.5,    0.7,    0.4,    0.6,    0.3,    0.1,   -0.2,   -0.1,   -0.0,   -0.1,   -0.1,   -0.1,    0.0,   -0.0,   -0.1,   -0.0,    0.1,   -0.1,    0.0,    0.1,    0.2,   -0.1,    0.1,    0.2,    0.2,   -0.5,   -0.3,    0.0,   -0.2,   -0.2,  999.0,   -0.2,   -0.1,  999.0,   -0.0,  999.0,  999.0,  999.0,  999.0,  999.0,  999.0
2016/03/16 13:50,  999.0,  999.0,  999.0,   -0.2,    0.0,   -0.5,  999.0,  999.0,  999.0,    0.2,    0.3,    0.2,    0.4,    0.0,    0.1,    0.1,    0.1,    0.1,   -0.1,   -0.0,    0.1,    0.2,    0.1,   -0.0,    0.1,    0.2,   -0.0,   -0.1,   -0.1,    0.2,   -0.1,    0.0,   -0.0,    0.2,   -0.0,    0.1,    0.7,  999.0,    0.8,    0.0,    0.3,    0.1,    0.1,    0.1,    0.1,   -0.1,   -0.1,   -0.1,   -0.0,   -0.1,   -0.1,   -0.3,    0.1,   -0.0,   -0.2,   -0.0,   -0.1,    0.1,   -0.2,    0.4,   -0.0,   -0.1,   -0.1,    0.1,   -0.2,   -0.2,   -0.3,    0.1,   -0.3,   -0.6,   -0.3,  999.0,  999.0,    0.0,    0.3,  999.0,  999.0,  999.0,  999.0,  999.0
2016/03/16 14:00,  999.0,  999.0,   -0.3,   -0.1,   -0.1,   -0.1,   -0.1,  999.0,    0.1,    0.2,    0.1,    0.2,    0.2,   -0.0,   -0.0,   -0.2,    0.1,    0.0,   -0.0,   -0.0,   -0.1,   -0.1,    0.1,    0.1,    0.0,    0.0,   -0.0,   -0.0,    0.2,   -0.0,   -0.2,   -0.1,    0.0,    0.1,   -0.0,    0.2,    0.3,    0.3,    0.1,    0.1,   -0.1,    0.1,    0.1,   -0.1,   -0.1,   -0.2,   -0.1,    0.0,   -0.0,   -0.2,   -0.0,   -0.0,    0.0,   -0.0,   -0.0,    0.0,   -0.1,   -0.2,   -0.0,    0.1,    0.2,   -0.1,   -0.1,    0.0,   -0.1,    0.1,   -0.2,    0.1,    0.1,   -0.2,  999.0,  999.0,  999.0,  999.0,  999.0,  999.0,  999.0,  999.0,  999.0,  999.0
2016/03/16 14:10,  999.0,  999.0,   -0.1,   -0.1,   -0.3,  999.0,   -0.2,  999.0,   -0.1,   -0.3,   -0.4,    0.0,    0.0,    0.2,    0.1,    0.1,    0.0,    0.0,   -0.0,    0.0,   -0.0,    0.0,    0.2,    0.0,   -0.1,    0.2,   -0.0,    0.0,    0.0,   -0.1,    0.0,   -0.1,    0.1,    0.1,    0.2,    0.0,    0.0,    0.2,   -0.1,   -0.2,   -0.5,   -0.3,   -0.2,   -0.1,    0.2,    0.1,   -0.0,   -0.1,    0.0,    0.1,   -0.0,   -0.1,   -0.1,   -0.1,    0.2,   -0.0,   -0.1,   -0.0,   -0.0,   -0.0,   -0.3,   -0.1,   -0.0,   -0.3,   -0.2,   -0.2,   -0.4,    0.2,  999.0,  999.0,    0.4,    0.0,  999.0,  999.0,  999.0,  999.0,  999.0,  999.0,  999.0,  999.0
2016/03/16 14:20,  999.0,  999.0,  999.0,   -0.0,   -0.1,   -0.1,  999.0,  999.0,    0.1,   -0.1,  999.0,    0.1,   -0.0,    0.0,   -0.1,   -0.1,   -0.0,    0.1,    0.1,   -0.1,   -0.1,   -0.0,   -0.1,    0.1,   -0.0,   -0.0,    0.1,   -0.0,   -0.1,    0.1,    0.1,    0.2,    0.1,    0.3,    0.1,   -0.0,    0.2,   -0.1,   -0.0,   -0.0,   -0.1,   -0.2,   -0.1,    0.1,   -0.0,   -0.1,    0.1,    0.1,   -0.1,    0.2,    0.1,    0.0,   -0.0,    0.0,   -0.1,   -0.0,    0.0,   -0.1,   -0.1,   -0.1,    0.1,   -0.0,   -0.1,   -0.1,   -0.0,   -0.1,   -0.1,   -0.4,    0.1,    0.0,  999.0,    0.2,  999.0,    0.0,    0.2,  999.0,  999.0,  999.0,  999.0,  999.0
2016/03/16 14:30,  999.0,  999.0,   -0.1,    0.0,    0.1,    0.1,    0.1,   -0.0,    0.1,    0.1,   -0.1,   -0.0,   -0.0,   -0.0,    0.0,    0.0,    0.0,    0.1,   -0.1,    0.1,    0.0,   -0.1,   -0.1,    0.1,   -0.1,    0.0,    0.1,    0.0,    0.0,    0.0,   -0.1,   -0.2,    0.2,    0.3,    0.1,   -0.0,    0.1,    0.1,    0.1,    0.1,   -0.1,   -0.2,   -0.1,    0.0,   -0.0,   -0.1,   -0.0,    0.0,   -0.1,    0.0,    0.1,    0.1,    0.0,    0.0,    0.0,    0.0,    0.1,    0.0,    0.1,    0.1,    0.1,    0.1,    0.0,   -0.0,   -0.2,    0.1,   -0.0,   -0.1,    0.1,    0.1,  999.0,    0.1,   -0.0,  999.0,   -0.1,  999.0,  999.0,  999.0,  999.0,  999.0
2016/03/16 14:40,  999.0,  999.0,   -0.1,    0.1,   -0.1,    0.2,    0.1,    0.1,    0.2,   -0.0,   -0.2,   -0.1,   -0.1,   -0.1,    0.0,    0.1,    0.1,    0.1,   -0.2,   -0.1,    0.1,   -0.0,   -0.1,   -0.1,   -0.0,   -0.0,    0.1,   -0.1,   -0.1,    0.2,    0.1,   -0.1,   -0.0,    0.2,   -0.1,   -0.3,   -0.1,    0.1,    0.1,    0.0,   -0.1,   -0.1,   -0.0,    0.0,    0.0,   -0.0,   -0.1,   -0.1,    0.0,    0.1,    0.1,   -0.0,    0.1,    0.1,   -0.0,   -0.0,   -0.1,   -0.2,    0.1,    0.2,    0.1,    0.1,    0.0,    0.2,    0.1,    0.0,    0.1,   -0.1,  999.0,   -0.2,    0.2,  999.0,  999.0,  999.0,    0.4,  999.0,  999.0,  999.0,  999.0,  999.0
2016/03/16 14:50,  999.0,  999.0,    0.0,  999.0,    0.0,  999.0,   -0.1,   -0.0,    0.0,   -0.0,   -0.1,    0.0,   -0.3,   -0.2,    0.0,    0.0,    0.1,    0.1,    0.1,    0.2,    0.1,   -0.1,    0.0,    0.0,    0.0,   -0.0,    0.0,    0.0,   -0.0,   -0.1,    0.0,   -0.0,   -0.0,   -0.2,    0.0,   -0.3,    0.0,    0.1,    0.1,    0.1,   -0.1,   -0.1,   -0.1,   -0.0,   -0.1,   -0.1,    0.1,   -0.1,    0.0,    0.1,   -0.0,    0.1,   -0.0,    0.0,   -0.0,    0.0,    0.0,   -0.1,   -0.0,   -0.1,    0.0,   -0.1,    0.0,    0.1,    0.0,   -0.1,    0.2,    0.0,  999.0,    0.0,   -0.0,   -0.0,    0.1,  999.0,  999.0,  999.0,  999.0,  999.0,  999.0,  999.0
2016/03/16 15:00,  999.0,  999.0,    0.0,  999.0,    0.0,    0.0,  999.0,  999.0,  999.0,    0.1,   -0.2,    0.1,   -0.1,   -0.1,   -0.1,   -0.0,   -0.1,   -0.0,   -0.0,    0.0,   -0.2,   -0.1,   -0.2,   -0.0,   -0.0,    0.1,    0.1,   -0.0,   -0.0,    0.0,    0.1,   -0.1,   -0.1,   -0.0,    0.2,    0.0,    0.0,   -0.0,   -0.1,    0.0,    0.0,   -0.1,   -0.0,    0.1,    0.2,    0.0,   -0.0,    0.0,   -0.0,   -0.1,   -0.1,    0.0,    0.0,   -0.1,    0.1,   -0.1,   -0.1,    0.1,   -0.1,    0.1,    0.1,    0.0,    0.2,   -0.1,   -0.0,   -0.0,   -0.2,   -0.1,    0.3,    0.2,    0.1,    0.2,    0.5,    0.0,   -0.3,  999.0,  999.0,  999.0,  999.0,  999.0
2016/03/16 15:10,  999.0,  999.0,  999.0,   -0.5,   -0.1,   -0.1,  999.0,  999.0,  999.0,    0.4,   -0.1,   -0.2,   -0.3,   -0.3,   -0.2,   -0.1,    0.0,    0.0,   -0.0,   -0.0,   -0.2,   -0.3,   -0.3,    0.0,    0.1,    0.1,    0.0,   -0.2,   -0.0,    0.1,    0.0,   -0.1,    0.0,   -0.1,   -0.1,    0.0,    0.0,    0.2,   -0.0,   -0.1,   -0.2,   -0.2,   -0.2,   -0.0,   -0.2,   -0.1,   -0.3,   -0.0,   -0.0,   -0.1,    0.1,    0.1,   -0.0,    0.1,    0.1,    0.2,   -0.1,   -0.0,   -0.1,    0.0,    0.0,   -0.1,    0.2,   -0.0,   -0.2,    0.2,   -0.1,   -0.1,  999.0,   -0.0,    0.1,  999.0,  999.0,    0.1,    0.3,  999.0,  999.0,  999.0,  999.0,  999.0
2016/03/16 15:20,  999.0,  999.0,   -0.1,   -0.0,    0.1,   -0.0,  999.0,  999.0,   -0.0,    0.0,    0.2,    0.2,    0.0,    0.0,    0.0,   -0.0,   -0.0,    0.0,   -0.1,    0.0,   -0.1,   -0.1,   -0.0,   -0.1,   -0.0,    0.0,    0.1,    0.1,   -0.2,   -0.1,   -0.1,   -0.2,    0.1,    0.1,    0.3,    0.1,    0.2,   -0.1,    0.0,    0.0,   -0.0,   -0.0,   -0.1,    0.0,    0.2,   -0.0,   -0.1,    0.1,   -0.1,    0.0,    0.0,   -0.2,   -0.1,   -0.0,    0.0,   -0.0,    0.0,    0.1,   -0.1,   -0.0,   -0.1,   -0.5,    0.1,    0.1,   -0.1,   -0.2,    0.0,    0.1,   -0.0,   -0.0,    0.1,  999.0,  999.0,    0.0,   -0.1,  999.0,  999.0,  999.0,  999.0,  999.0
2016/03/16 15:30,  999.0,  999.0,  999.0,   -0.0,   -0.2,   -0.3,   -0.2,   -0.3,   -0.2,    0.0,    0.5,    0.4,    0.4,    0.4,    0.4,    0.1,    0.1,   -0.0,    0.1,    0.0,   -0.1,    0.1,    0.0,    0.0,   -0.0,    0.1,    0.1,   -0.2,   -0.1,   -0.3,   -0.1,   -0.0,    0.1,   -0.0,   -0.0,   -0.1,   -0.0,    0.2,   -0.0,    0.0,   -0.0,   -0.2,   -0.1,    0.0,   -0.0,    0.1,    0.0,   -0.1,    0.0,   -0.0,    0.0,    0.1,    0.1,   -0.1,    0.0,   -0.1,   -0.2,    0.1,    0.1,   -0.1,    0.1,   -0.1,    0.0,    0.0,   -0.0,    0.0,    0.0,  999.0,   -0.0,    0.3,  999.0,  999.0,    0.1,  999.0,    0.1,  999.0,  999.0,  999.0,  999.0,  999.0
2016/03/16 15:40,  999.0,  999.0,    0.0,   -0.1,   -0.0,   -0.2,  999.0,    0.0,    0.0,    0.1,    0.3,    0.6,    0.5,    0.1,    0.2,    0.3,    0.2,    0.2,   -0.2,   -0.2,    0.1,   -0.0,   -0.0,    0.1,   -0.1,    0.0,    0.1,    0.1,    0.1,   -0.0,   -0.3,   -0.0,    0.1,    0.1,    0.2,   -0.0,   -0.1,    0.0,   -0.0,   -0.0,    0.1,   -0.2,   -0.1,   -0.2,   -0.1,    0.0,   -0.1,   -0.2,   -0.1,    0.1,   -0.1,    0.0,    0.0,   -0.1,   -0.1,    0.1,   -0.1,   -0.1,   -0.0,   -0.1,   -0.0,   -0.1,   -0.1,    0.0,    0.0,   -0.0,    0.0,   -0.2,   -0.1,    0.2,  999.0,   -0.5,   -0.2,  999.0,    0.0,  999.0,  999.0,  999.0,  999.0,  999.0
2016/03/16 15:50,  999.0,  999.0,   -0.1,    0.0,    0.0,   -0.2,   -0.3,   -0.3,    0.0,   -0.0,    0.3,    0.5,    0.1,    0.2,    0.2,    0.1,    0.3,    0.2,    0.0,    0.0,   -0.0,   -0.0,    0.1,    0.1,    0.0,    0.1,    0.0,   -0.0,    0.1,    0.1,    0.3,    0.3,    0.0,    0.1,   -0.1,    0.0,   -0.0,    0.2,    0.2,   -0.1,   -0.2,    0.1,    0.2,   -0.0,    0.1,    0.0,   -0.1,   -0.0,   -0.2,   -0.1,    0.0,   -0.0,   -0.1,    0.1,   -0.1,   -0.1,    0.1,   -0.1,   -0.1,   -0.2,    0.1,   -0.1,   -0.0,    0.0,   -0.1,   -0.1,    0.1,   -0.0,    0.1,    0.3,  999.0,    0.3,   -0.4,  999.0,    0.0,  999.0,  999.0,  999.0,  999.0,  999.0
2016/03/16 16:00,  999.0,  999.0,    0.1,   -0.1,    0.1,   -0.2,   -0.2,   -0.1,   -0.2,    0.4,  999.0,    0.7,    0.6,    0.6,    0.4,    0.3,    0.2,    0.0,   -0.1,    0.0,    0.0,   -0.1,    0.0,   -0.1,   -0.2,   -0.0,   -0.0,    0.3,   -0.1,    0.0,    0.4,    0.5,    0.2,    0.0,   -0.1,    0.1,    0.0,    0.0,    0.1,    0.0,   -0.1,   -0.1,    0.2,   -0.0,   -0.0,    0.1,   -0.3,   -0.1,   -0.0,    0.1,    0.1,    0.1,    0.0,   -0.0,   -0.0,   -0.1,   -0.1,   -0.0,    0.0,    0.1,   -0.0,   -0.0,    0.1,    0.1,    0.1,   -0.0,    0.1,    0.0,   -0.2,   -0.4,  999.0,  999.0,  999.0,  999.0,  999.0,  999.0,  999.0,  999.0,  999.0,  999.0
2016/03/16 16:10,  999.0,  999.0,   -0.2,    0.0,   -0.2,   -0.0,   -0.2,   -0.1,    0.1,    0.9,    0.9,    0.6,    0.2,    0.2,    0.1,    0.1,    0.1,    0.0,   -0.0,    0.1,    0.0,    0.0,   -0.1,    0.0,   -0.1,   -0.1,    0.0,    0.3,    0.0,    0.3,    1.5,    1.3,    0.3,    0.0,   -0.2,   -0.1,    0.0,    0.2,    0.2,    0.1,   -0.3,   -0.1,   -0.0,   -0.1,    0.1,    0.1,   -0.1,   -0.1,   -0.0,    0.0,    0.0,   -0.1,   -0.1,   -0.2,   -0.3,    0.0,   -0.1,   -0.0,   -0.2,   -0.0,    0.0,    0.1,   -0.0,   -0.1,   -0.0,    0.1,   -0.1,    0.1,   -0.1,  999.0,  999.0,   -0.1,  999.0,  999.0,   -0.2,  999.0,  999.0,  999.0,  999.0,  999.0
2016/03/16 16:20,  999.0,  999.0,   -0.2,   -0.1,   -0.1,   -0.2,   -0.5,   -0.2,    0.1,    0.9,    1.3,    0.8,    0.5,    0.5,    0.1,    0.1,    0.1,   -0.0,   -0.1,    0.2,   -0.1,   -0.1,    0.1,   -0.0,   -0.1,    0.1,    0.1,    0.1,   -0.0,    0.3,    0.6,    0.2,   -0.0,    0.1,    0.2,    0.1,    0.1,    0.0,    0.1,    0.1,    0.0,    0.1,    0.1,   -0.0,    0.1,    0.1,    0.1,   -0.1,   -0.1,    0.3,    0.0,   -0.2,   -0.1,   -0.0,   -0.0,   -0.0,   -0.1,    0.0,   -0.1,  999.0,    0.2,   -0.1,   -0.1,   -0.0,    0.1,   -0.1,    0.1,    0.1,  999.0,   -0.0,    0.2,  999.0,  999.0,  999.0,    0.3,  999.0,  999.0,  999.0,  999.0,  999.0
2016/03/16 16:30,  999.0,  999.0,   -0.1,   -0.1,   -0.0,   -0.1,   -0.3,   -0.4,   -0.2,    0.8,    1.1,    0.6,    0.4,    0.5,    0.5,    0.5,    0.3,    0.1,    0.0,   -0.0,    0.1,   -0.0,   -0.0,    0.1,   -0.0,    0.1,    0.0,    0.0,   -0.0,    0.1,    0.7,    0.9,    0.1,    0.3,    0.1,    0.1,    0.5,    0.2,    0.0,   -0.1,   -0.1,   -0.1,   -0.0,   -0.1,    0.0,    0.1,   -0.0,   -0.2,   -0.1,   -0.1,   -0.1,   -0.0,    0.1,    0.1,    0.1,   -0.0,   -0.2,   -0.1,    0.1,    0.1,   -0.1,   -0.0,    0.0,   -0.0,   -0.1,    0.1,    0.2,   -0.1,   -0.1,    0.2,    0.1,  999.0,    0.1,  999.0,  999.0,  999.0,  999.0,  999.0,  999.0,  999.0
2016/03/16 16:40,  999.0,  999.0,   -0.2,   -0.2,   -0.2,   -0.1,   -0.2,   -0.2,   -0.2,    1.2,    1.9,    1.1,    0.8,    1.3,    0.9,    0.4,    0.1,    0.2,    0.3,    0.0,    0.0,    0.1,    0.2,    0.1,    0.0,    0.2,    0.1,    0.1,   -0.1,    0.1,    0.5,    1.5,    0.2,   -0.0,    0.0,    0.1,    0.3,    0.2,    0.0,    0.2,   -0.0,   -0.1,    0.1,    0.1,    0.0,    0.1,   -0.0,   -0.1,    0.0,    0.0,   -0.1,   -0.0,    0.1,    0.1,   -0.1,    0.0,   -0.2,    0.1,    0.1,   -0.1,    0.1,   -0.0,   -0.0,   -0.0,    0.0,   -0.0,    0.0,    0.2,    0.1,   -0.2,  999.0,    0.3,    0.4,    0.0,  999.0,  999.0,  999.0,  999.0,  999.0,  999.0
2016/03/16 16:50,  999.0,  999.0,    0.0,   -0.0,  999.0,    0.1,   -0.1,   -0.1,    0.0,    1.6,    1.6,    1.1,    0.8,    0.8,    0.6,    0.6,    0.2,    0.2,    0.1,   -0.1,   -0.0,    0.0,   -0.0,    0.0,   -0.1,   -0.0,    0.1,    0.1,    0.1,   -0.0,    0.9,    2.9,    0.6,    0.2,   -0.0,  999.0,    0.2,    0.3,    0.2,    0.2,   -0.1,   -0.1,   -0.0,   -0.0,    0.0,    0.3,    0.1,   -0.2,   -0.2,    0.1,    0.1,   -0.1,   -0.1,    0.0,    0.0,   -0.0,    0.1,   -0.0,   -0.0,   -0.1,   -0.1,   -0.2,    0.0,    0.1,   -0.1,   -0.2,   -0.0,  999.0,   -0.2,  999.0,   -0.1,  999.0,  999.0,  999.0,  999.0,  999.0,  999.0,  999.0,  999.0,  999.0
2016/03/16 17:00,  999.0,    0.1,   -0.0,   -0.1,    0.2,  999.0,  999.0,  999.0,   -0.1,    1.8,    2.7,    1.4,    1.0,    1.3,    1.5,    0.5,    0.2,    0.1,    0.1,    0.1,   -0.1,    0.1,    0.0,   -0.0,    0.1,    0.1,   -0.0,   -0.1,   -0.0,    0.0,    1.7,  999.0,    0.8,    0.1,    0.7,    0.9,    0.1,   -0.1,    0.0,    0.1,   -0.2,   -0.1,    0.1,    0.1,   -0.0,   -0.1,   -0.1,   -0.2,    0.0,    0.0,    0.1,   -0.0,    0.1,    0.2,    0.1,    0.1,    0.1,    0.1,   -0.1,   -0.0,    0.1,   -0.0,    0.1,    0.0,   -0.2,   -0.0,    0.0,    0.3,   -0.2,   -0.1,   -0.1,  999.0,  999.0,  999.0,  999.0,  999.0,  999.0,  999.0,  999.0,  999.0
2016/03/16 17:10,  999.0,   -0.0,   -0.1,   -0.1,    0.1,   -0.1,  999.0,   -0.3,    0.1,    0.9,    2.9,    1.8,    1.9,    2.5,    1.8,    0.5,    0.3,    0.1,    0.0,    0.1,    0.1,    0.1,   -0.1,   -0.1,   -0.0,   -0.0,    0.0,   -0.1,    0.1,    0.0,    1.3,    3.7,    0.7,    0.1,   -0.0,    0.1,  999.0,    0.2,    0.1,    0.2,   -0.4,   -0.2,   -0.0,   -0.1,   -0.1,   -0.1,   -0.1,   -0.0,   -0.0,   -0.0,   -0.1,   -0.2,    0.0,    0.0,   -0.0,    0.2,    0.0,   -0.1,   -0.0,   -0.1,   -0.0,    0.1,   -0.1,    0.1,    0.0,    0.0,   -0.2,    0.0,    0.0,   -0.2,   -0.1,  999.0,   -0.2,   -0.1,  999.0,  999.0,  999.0,  999.0,  999.0,  999.0
2016/03/16 17:20,  999.0,    0.1,    0.0,   -0.2,   -0.2,   -0.3,  999.0,   -0.3,   -0.1,    1.5,    2.8,    2.0,    2.0,    1.5,    0.5,    0.2,    0.2,    0.1,   -0.0,    0.1,    0.1,    0.1,    0.2,    0.0,    0.0,    0.2,    0.1,    0.0,   -0.0,    0.1,    0.9,    1.9,    1.0,    0.2,    0.1,    0.1,  999.0,    0.2,    0.1,    0.2,   -0.1,   -0.0,    0.0,   -0.0,   -0.1,    0.2,   -0.2,   -0.2,    0.1,    0.1,    0.2,    0.0,    0.1,   -0.2,   -0.1,    0.1,   -0.1,    0.0,   -0.2,    0.0,   -0.0,   -0.1,   -0.1,   -0.1,   -0.1,   -0.3,   -0.0,   -0.3,   -0.2,   -0.3,   -0.1,    0.1,    0.3,  999.0,  999.0,  999.0,  999.0,  999.0,  999.0,  999.0
2016/03/16 17:30,  999.0,    0.1,   -0.2,   -0.2,   -0.2,  999.0,   -0.2,  999.0,    0.5,    2.0,    2.4,    2.2,    1.5,    0.9,    0.3,    0.1,    0.1,    0.0,    0.1,    0.1,    0.1,    0.0,   -0.0,    0.1,   -0.0,    0.0,    0.0,    0.1,   -0.2,    0.3,    0.6,    0.6,    0.4,    0.2,    0.3,   -0.0,    0.1,    0.0,   -0.1,   -0.1,   -0.2,   -0.1,    0.0,    0.0,   -0.2,   -0.1,   -0.1,    0.1,    0.0,   -0.0,   -0.1,    0.1,   -0.1,   -0.1,   -0.0,   -0.1,   -0.0,   -0.0,   -0.1,   -0.1,   -0.0,   -0.0,    0.1,   -0.3,   -0.1,   -0.3,   -0.3,    0.2,   -0.1,   -0.1,   -0.0,   -0.1,   -0.4,  999.0,  999.0,  999.0,  999.0,  999.0,  999.0,  999.0
2016/03/16 17:40,  999.0,    0.1,   -0.0,    0.1,  999.0,   -0.2,  999.0,   -0.1,    0.3,    1.2,    1.8,    0.9,    1.1,    1.0,    0.4,    0.0,    0.1,    0.1,    0.0,    0.1,    0.1,    0.1,   -0.1,   -0.0,   -0.1,    0.0,   -0.2,   -0.1,    0.1,    0.2,    0.1,    0.6,    0.8,    0.5,    0.3,    0.4,    0.2,    0.1,    0.1,   -0.1,   -0.5,   -0.1,    0.0,    0.0,    0.1,    0.0,    0.1,   -0.0,   -0.2,    0.2,    0.0,   -0.1,   -0.0,    0.0,   -0.0,    0.2,    0.0,   -0.1,    0.1,    0.1,   -0.0,   -0.1,    0.1,    0.1,   -0.1,   -0.2,   -0.1,    0.3,    0.3,   -0.1,    0.1,    0.2,   -0.2,  999.0,  999.0,  999.0,  999.0,  999.0,  999.0,  999.0
2016/03/16 17:50,  999.0,   -0.0,   -0.0,    0.0,   -0.1,   -0.1,   -0.2,    0.0,    0.4,    0.7,    1.4,    0.5,    0.3,    0.5,    0.1,    0.0,    0.0,    0.0,    0.1,    0.1,    0.1,    0.1,    0.1,   -0.2,   -0.1,   -0.1,   -0.3,   -0.0,    0.0,   -0.0,    0.0,    0.1,    1.0,    0.7,    0.1,    0.3,  999.0,    0.3,   -0.0,    0.1,   -0.1,   -0.1,    0.0,    0.0,    0.1,   -0.1,    0.1,   -0.0,   -0.2,    0.1,    0.1,    0.1,    0.2,    0.1,    0.2,   -0.1,   -0.0,    0.2,    0.0,    0.0,    0.0,    0.1,    0.2,   -0.4,   -0.2,   -0.5,   -0.4,    0.0,    0.1,   -0.0,  999.0,    0.4,  999.0,  999.0,  999.0,  999.0,  999.0,  999.0,  999.0,  999.0
2016/03/16 18:00,  999.0,  999.0,    0.0,   -0.0,   -0.2,   -0.1,   -0.3,    0.1,    0.4,    0.5,    0.4,    0.1,    0.3,    0.3,    0.1,    0.1,    0.1,    0.0,    0.0,    0.1,    0.0,    0.1,   -0.1,   -0.1,   -0.0,   -0.1,    0.1,   -0.1,    0.1,    0.1,   -0.3,    0.2,    0.1,    0.7,    0.0,    0.2,   -0.1,    0.2,    0.0,    0.0,   -0.2,   -0.0,   -0.0,    0.1,    0.4,    0.0,    0.1,    0.2,   -0.0,   -0.0,   -0.0,    0.1,    0.3,    0.1,    0.1,   -0.1,    0.0,    0.1,    0.1,    0.1,   -0.0,    0.0,   -0.3,   -0.2,   -0.1,   -0.3,   -0.5,  999.0,   -0.1,    0.3,  999.0,  999.0,  999.0,   -0.3,  999.0,  999.0,  999.0,  999.0,  999.0,  999.0
2016/03/16 18:10,  999.0,   -0.0,   -0.1,    0.0,   -0.0,   -0.5,   -0.5,   -0.0,    0.4,    0.3,    0.3,    0.4,    0.5,    0.2,    0.0,    0.1,    0.1,    0.0,   -0.0,    0.1,    0.3,   -0.0,   -0.0,    0.1,   -0.0,    0.1,    0.1,   -0.0,   -0.0,   -0.1,    0.0,    0.1,    0.1,    0.1,    0.1,  999.0,  999.0,   -0.4,   -0.2,    0.0,   -0.5,   -0.2,    0.3,    0.1,   -0.2,   -0.2,    0.0,    0.0,    0.2,    0.1,   -0.1,    0.2,    0.1,    0.2,    0.1,    0.1,    0.0,   -0.1,    0.1,    0.2,   -0.0,   -0.2,   -0.5,   -0.5,   -0.5,   -0.0,   -0.5,   -0.5,   -0.6,    0.0,    0.2,   -0.2,    0.2,  999.0,  999.0,  999.0,  999.0,  999.0,  999.0,  999.0
2016/03/16 18:20,  999.0,  999.0,   -0.1,   -0.3,   -0.5,   -0.4,   -0.9,  999.0,    0.2,    0.0,    0.0,    0.4,    0.0,    0.0,    0.0,    0.2,    0.1,    0.2,    0.2,    0.1,    0.2,    0.0,    0.1,    0.1,    0.0,   -0.0,    0.0,    0.1,   -0.1,   -0.0,   -0.1,    0.1,   -0.1,   -0.0,    0.1,  999.0,   -0.0,    0.0,   -0.0,   -0.1,   -0.4,   -0.4,   -0.1,   -0.2,   -0.2,    0.2,    0.1,   -0.1,   -0.0,   -0.0,   -0.2,   -0.2,   -0.0,    0.1,   -0.0,    0.1,   -0.0,   -0.1,   -0.1,   -0.7,   -0.6,   -0.4,   -0.2,   -0.6,   -0.9,   -0.7,  999.0,   -0.1,   -0.0,  999.0,   -0.1,    0.1,  999.0,  999.0,  999.0,  999.0,  999.0,  999.0,  999.0,  999.0
2016/03/16 18:30,  999.0,  999.0,   -0.2,   -0.4,  999.0,   -0.8,  999.0,    0.1,  999.0,   -0.1,    0.1,    0.1,    0.2,    0.2,    0.1,    0.3,    0.0,    0.0,    0.2,    0.1,    0.0,    0.0,   -0.1,   -0.1,    0.0,   -0.0,   -0.1,    0.1,   -0.2,    0.1,    0.3,    0.0,   -0.0,    0.1,   -0.3,   -0.2,  999.0,   -0.1,    0.1,    0.2,   -0.2,   -0.1,    0.0,   -0.2,   -0.1,   -0.1,   -0.0,    0.1,   -0.0,    0.0,   -0.0,    0.1,    0.1,    0.1,    0.2,   -0.0,    0.0,   -0.0,   -0.4,   -0.9,   -1.5,   -1.0,   -0.5,   -0.1,   -0.0,   -0.2,   -0.1,  999.0,   -0.1,   -0.2,  999.0,   -0.3,  999.0,  999.0,  999.0,  999.0,  999.0,  999.0,  999.0,  999.0
2016/03/16 18:40,  999.0,  999.0,   -0.0,   -0.6,    0.3,    0.1,    0.5,    0.5,    0.6,    0.0,    0.6,    0.5,    0.2,    0.1,    0.3,    0.3,    0.1,    0.1,    0.2,    0.1,    0.1,    0.1,    0.1,    0.0,   -0.0,    0.1,    0.0,    0.3,    0.6,    0.3,    0.6,    0.5,    0.1,    0.1,    0.0,   -0.3,    0.0,  999.0,    0.4,    0.1,   -1.0,   -0.3,   -0.1,    0.2,    0.2,   -0.1,   -0.0,   -0.3,    0.1,    0.2,   -0.1,   -0.1,   -0.1,   -0.1,    0.1,    0.1,    0.2,    0.3,    0.1,   -0.4,   -0.1,   -0.3,    0.0,   -0.4,   -0.1,   -0.0,   -0.8,   -0.2,  999.0,  999.0,  999.0,  999.0,  999.0,  999.0,  999.0,  999.0,  999.0,  999.0,  999.0,  999.0
2016/03/16 18:50,  999.0,  999.0,   -0.1,   -0.2,   -0.1,    0.6,    0.5,   -0.0,    0.3,    0.2,    0.3,    0.3,    0.2,    0.1,    0.3,    0.3,    0.0,    0.1,    0.2,    0.1,    0.1,    0.0,    0.0,   -0.0,    0.1,    0.0,    0.0,    0.1,    0.1,  999.0,    0.3,    0.1,   -0.0,   -0.0,   -0.0,   -0.3,   -0.2,   -0.2,  999.0,   -0.2,   -0.5,  999.0,   -0.1,    0.0,   -0.2,    0.1,   -0.0,    0.1,    0.1,    0.0,   -0.1,   -0.0,    0.0,    0.2,    0.0,   -0.2,   -0.1,    0.1,    0.3,   -0.3,   -0.1,  999.0,  999.0,  999.0,  999.0,    4.4,  999.0,  999.0,  999.0,  999.0,  999.0,  999.0,  999.0,  999.0,  999.0,  999.0,  999.0,  999.0,  999.0,  999.0
2016/03/16 19:00,  999.0,  999.0,   -0.2,   -0.2,    0.1,    1.0,    0.2,  999.0,    0.7,    0.2,    0.1,    0.4,    0.3,    0.3,    0.4,    0.1,    0.1,    0.2,    0.0,    0.6,    0.4,    0.0,   -0.2,   -0.2,   -0.0,   -0.1,    0.1,    0.1,    0.5,    1.1,  999.0,    0.4,    0.0,    0.4,  999.0,    0.2,   -0.0,   -0.2,   -0.1,   -0.4,   -0.5,   -0.4,   -0.1,    0.1,   -0.0,    0.0,    0.0,    0.2,   -0.0,    0.0,   -0.1,    0.1,    0.1,   -0.1,   -0.3,   -0.1,   -1.2,   -1.7,   -2.8,   -4.4,  999.0,  999.0,  999.0,  999.0,  999.0,  999.0,  999.0,  999.0,  999.0,  999.0,  999.0,  999.0,  999.0,  999.0,  999.0,  999.0,  999.0,  999.0,  999.0,  999.0
2016/03/16 19:10,  999.0,  999.0,   -0.2,    0.4,    1.1,    1.0,    0.8,  999.0,  999.0,   -2.0,    0.1,    0.3,    0.4,    0.4,    0.5,    0.5,    0.0,    0.1,    0.2,    0.9,    1.0,    0.3,    0.2,    0.0,    0.1,    0.0,   -0.1,    0.0,   -0.0,    0.4,    1.1,  999.0,  999.0,  999.0,    1.5,   -0.0,    0.3,    0.1,    0.5,    0.0,   -0.8,   -0.5,    0.2,    0.1,    0.0,   -0.3,   -0.1,   -0.1,   -0.1,   -0.0,    0.1,    0.1,    0.1,    0.1,   -0.2,  999.0,   -0.4,   -0.6,   -1.1,  999.0,  999.0,  999.0,  999.0,  999.0,  999.0,  999.0,  999.0,  999.0,  999.0,  999.0,  999.0,  999.0,  999.0,  999.0,  999.0,  999.0,  999.0,  999.0,  999.0,  999.0
2016/03/16 19:20,  999.0,  999.0,   -0.0,    0.6,    0.9,    0.4,    0.2,    0.1,  999.0,    0.3,    0.3,    0.1,    0.1,    0.1,    0.6,    0.5,    0.5,    0.1,    0.1,    0.2,    1.4,    2.8,    2.0,    0.4,    0.2,    0.1,    0.1,   -0.0,    0.0,    1.0,    3.2,    3.0,    2.8,    0.9,    0.3,    0.9,  999.0,    0.5,    0.1,   -0.1,   -0.6,   -0.0,    0.3,   -0.2,   -0.2,   -0.1,    0.1,   -0.0,    0.1,    0.3,    0.1,    0.2,    0.1,   -0.2,  999.0,   -0.0,   -0.3,  999.0,  999.0,  999.0,   -1.9,  999.0,  999.0,  999.0,  999.0,  999.0,  999.0,  999.0,  999.0,  999.0,  999.0,  999.0,  999.0,  999.0,  999.0,  999.0,  999.0,  999.0,  999.0,  999.0
2016/03/16 19:30,  999.0,  999.0,   -0.3,    0.6,    0.7,    0.4,    0.3,    0.7,    0.2,    0.2,    0.5,    0.2,   -0.1,  999.0,    0.4,    0.7,    0.3,    0.1,    0.1,    0.1,    0.3,    1.1,    0.4,    0.0,    0.1,   -0.0,    0.2,    0.6,    2.0,    3.7,  999.0,    2.1,    0.7,    0.2,    0.2,    0.3,    0.1,    0.3,   -0.1,  999.0,   -0.1,   -0.2,   -0.0,   -0.1,    0.0,    0.0,   -0.1,   -0.4,  999.0,  999.0,    0.1,   -0.1,  999.0,    0.0,   -0.1,    0.1,   -0.7,    0.0,  999.0,  999.0,   -0.0,    0.0,  999.0,  999.0,  999.0,  999.0,  999.0,  999.0,  999.0,  999.0,  999.0,  999.0,  999.0,  999.0,  999.0,  999.0,  999.0,  999.0,  999.0,  999.0
2016/03/16 19:40,  999.0,  999.0,   -0.1,    0.5,    0.5,    0.4,    0.6,  999.0,    0.0,    0.2,    0.0,    0.0,   -0.1,    0.1,    0.3,    0.1,   -0.1,    0.1,    0.2,    0.3,    0.9,    0.7,    0.3,    0.1,    0.1,    0.7,    0.8,    0.4,    0.7,    0.7,    0.4,    0.1,    0.2,   -0.0,    0.5,    0.3,  999.0,    0.2,   -0.2,   -0.1,   -0.5,   -0.4,   -0.2,    0.0,    0.0,    0.0,   -0.0,    0.1,   -0.0,   -0.2,   -0.1,    0.3,   -0.7,   -0.2,   -0.3,   -0.1,    0.1,   -0.0,   -0.1,    0.1,   -0.0,  999.0,    0.3,   -0.4,    0.1,    0.1,  999.0,  999.0,  999.0,  999.0,  999.0,  999.0,  999.0,  999.0,  999.0,  999.0,  999.0,  999.0,  999.0,  999.0
2016/03/16 19:50,  999.0,  999.0,   -0.7,    0.3,    0.6,    0.6,    0.8,    0.4,  999.0,    0.0,    0.4,    0.1,    0.2,    0.3,    0.3,    0.4,    0.3,   -0.0,    0.4,    0.4,    0.8,    0.3,   -0.0,   -0.0,    0.9,    2.9,    0.7,    0.0,    0.7,    0.8,    0.6,    0.1,    0.1,    0.1,   -0.8,   -0.1,   -0.1,  999.0,    0.4,   -0.0,   -0.5,   -0.1,   -0.0,    0.0,    0.2,   -0.2,   -0.0,   -0.2,   -0.2,   -0.1,    0.2,   -0.2,  999.0,    0.0,   -0.1,   -0.1,   -0.2,  999.0,  999.0,    0.0,  999.0,  999.0,   -0.1,   -0.4,    0.0,  999.0,  999.0,  999.0,  999.0,  999.0,  999.0,  999.0,  999.0,  999.0,  999.0,  999.0,  999.0,  999.0,  999.0,  999.0
2016/03/16 20:00,  999.0,  999.0,    0.2,    0.8,    0.4,    0.8,    0.2,   -0.2,   -0.3,   -0.1,    0.2,    0.6,    0.5,    0.4,    0.4,    0.3,    0.3,    0.6,    0.7,    0.9,    0.4,    0.2,    0.1,    0.3,    2.9,  999.0,    1.7,    0.5,    0.9,    0.4,    0.1,    0.1,    0.6,    0.7,    0.3,    0.7,  999.0,  999.0,   -0.4,   -0.2,   -0.5,   -0.4,    0.2,   -0.1,   -0.1,   -0.0,    0.2,   -0.2,    0.1,   -0.1,    0.0,   -0.2,  999.0,   -0.1,   -0.0,   -0.3,    0.0,    0.1,   -0.4,    0.4,   -0.0,  999.0,    0.1,   -0.1,   -0.2,  999.0,  999.0,  999.0,  999.0,  999.0,  999.0,  999.0,  999.0,  999.0,  999.0,  999.0,  999.0,  999.0,  999.0,  999.0
2016/03/16 20:10,  999.0,   -0.0,    0.2,    0.4,   -0.7,    1.9,    0.7,    0.0,  999.0,  999.0,    0.1,    0.7,    0.6,    1.3,    1.2,    0.8,    0.5,    1.7,    0.9,    0.4,    0.0,    0.0,    0.1,    0.1,    2.1,  999.0,    3.4,    0.4,    0.3,   -0.0,   -0.1,    0.1,    0.7,    0.8,   -0.1,  999.0,   -0.3,   -0.2,   -0.1,    0.1,   -0.7,  999.0,  999.0,   -0.1,    0.2,    0.2,    0.3,    0.4,    0.5,    0.2,   -0.1,    0.0,  999.0,   -0.1,  999.0,    0.4,    0.2,    0.3,    0.0,    0.1,  999.0,  999.0,  999.0,  999.0,   -0.0,  999.0,   -0.0,  999.0,  999.0,  999.0,  999.0,  999.0,  999.0,  999.0,  999.0,  999.0,  999.0,  999.0,  999.0,  999.0
2016/03/16 20:20,  999.0,   -0.0,   -0.0,    0.9,    0.3,    0.0,    1.4,    0.6,    1.0,    0.6,    0.5,    0.5,    0.4,    0.6,    1.4,    3.5,    3.3,    0.9,    0.1,    0.0,    0.2,    0.5,    1.3,    5.7,  999.0,  999.0,    3.7,    0.4,    0.1,   -0.1,   -0.1,    0.6,    0.7,    0.4,    0.0,    0.1,   -0.1,  999.0,   -0.0,   -0.1,   -0.6,   -0.3,  999.0,   -0.6,   -0.1,   -0.1,    0.1,    0.1,  999.0,    0.2,   -0.2,   -0.5,   -0.1,    0.1,    0.2,    0.0,    0.0,    0.3,    0.2,   -0.0,  999.0,  999.0,  999.0,    0.2,  999.0,  999.0,  999.0,  999.0,  999.0,  999.0,  999.0,  999.0,  999.0,  999.0,  999.0,  999.0,  999.0,  999.0,  999.0,  999.0
2016/03/16 20:30,  999.0,   -0.0,    0.6,  999.0,   -0.4,    1.1,    1.0,    1.3,   -0.4,    0.2,    0.4,    0.2,    0.2,    0.7,    1.8,    1.3,    0.8,    0.4,   -0.0,   -0.2,   -0.2,    0.2,   -0.1,    3.1,    4.1,  999.0,    2.1,    0.2,    0.1,   -0.2,    0.2,   -0.1,    0.2,   -0.1,  999.0,    0.1,  999.0,  999.0,   -0.2,    0.0,   -1.0,   -0.3,    0.1,   -0.1,   -0.2,   -0.2,   -0.1,   -0.0,    0.1,    0.2,    0.6,  999.0,  999.0,    0.0,    0.6,  999.0,    0.1,   -0.1,    0.3,   -0.1,  999.0,  999.0,  999.0,  999.0,  999.0,  999.0,  999.0,  999.0,  999.0,  999.0,  999.0,  999.0,  999.0,  999.0,  999.0,  999.0,  999.0,  999.0,  999.0,  999.0
2016/03/16 20:40,  999.0,    0.2,    0.1,   -0.4,    0.5,  999.0,    0.6,  999.0,    0.5,    0.5,    0.9,    0.4,    1.0,    1.1,    1.6,    1.7,    1.5,    0.4,    0.2,    0.1,    0.1,   -0.1,   -0.2,    0.2,    2.8,    3.7,    2.4,    0.4,    0.2,    0.2,   -0.2,    0.4,    0.2,  999.0,  999.0,  999.0,  999.0,   -0.1,   -0.2,   -0.0,   -0.7,   -0.4,   -0.4,    0.0,   -0.0,  999.0,   -0.1,    0.2,    0.3,    0.1,    0.1,    0.3,  999.0,    0.2,   -0.1,  999.0,  999.0,   -0.1,  999.0,  999.0,  999.0,  999.0,  999.0,  999.0,  999.0,  999.0,  999.0,  999.0,  999.0,  999.0,  999.0,  999.0,  999.0,  999.0,  999.0,  999.0,  999.0,  999.0,  999.0,  999.0
2016/03/16 20:50,  999.0,  999.0,  999.0,  999.0,    0.4,    1.6,    0.4,    1.0,    0.7,    1.4,    2.1,    2.3,    1.4,    2.2,    3.0,  999.0,    2.0,    1.6,    0.8,    0.1,    0.0,   -0.1,   -0.1,    0.5,    3.1,    4.2,    3.0,    0.5,    0.4,    0.2,    0.6,    0.3,    0.1,    0.2,    0.1,  999.0,    0.4,  999.0,   -0.1,   -0.1,   -0.6,   -0.6,    0.1,    0.1,   -0.0,   -0.2,   -0.1,    0.0,    0.1,  999.0,    0.6,    0.1,  999.0,    0.3,  999.0,  999.0,   -0.1,  999.0,    0.2,  999.0,  999.0,  999.0,  999.0,  999.0,  999.0,  999.0,  999.0,  999.0,  999.0,  999.0,  999.0,  999.0,  999.0,  999.0,  999.0,  999.0,  999.0,  999.0,  999.0,  999.0
2016/03/16 21:00,  999.0,  999.0,  999.0,  999.0,    0.1,  999.0,  999.0,    0.7,    0.1,    0.3,    1.3,    1.3,    1.2,    1.8,    2.3,    1.8,    0.5,    0.0,    0.3,    0.5,    0.1,   -0.1,    0.1,    0.5,    4.2,    6.0,    3.5,    0.2,    0.4,    0.2,   -0.1,    0.6,    0.4,    0.5,    0.5,    0.2,    0.2,    0.0,  999.0,   -0.0,   -0.3,  999.0,  999.0,    0.4,   -0.2,   -0.1,   -0.2,   -0.2,    0.0,    0.4,   -0.0,    0.3,   -0.0,    0.2,    0.6,    0.1,    0.4,  999.0,    0.3,  999.0,  999.0,  999.0,  999.0,  999.0,   -0.6,  999.0,  999.0,  999.0,  999.0,  999.0,  999.0,  999.0,  999.0,   -0.0,  999.0,  999.0,  999.0,  999.0,  999.0,  999.0
2016/03/16 21:10,  999.0,  999.0,  999.0,  999.0,  999.0,  999.0,  999.0,  999.0,  999.0,    0.2,    0.6,    0.8,    0.9,    0.8,    0.8,    0.6,    0.2,    0.3,   -0.0,    0.2,    0.1,    0.1,   -0.2,    0.3,    1.5,    3.9,    4.5,    0.7,    0.0,    0.4,    0.4,    0.1,   -0.0,    0.3,   -0.1,  999.0,   -0.2,  999.0,   -0.0,   -0.1,   -0.5,   -0.3,    0.3,   -0.2,    0.2,    0.0,    0.0,   -0.0,   -0.0,    0.4,    0.2,    0.2,    0.1,    0.1,    0.0,    0.0,   -0.3,  999.0,   -0.0,   -0.4,  999.0,    0.1,  999.0,    0.1,   -0.0,  999.0,  999.0,  999.0,  999.0,  999.0,  999.0,  999.0,  999.0,   -0.4,  999.0,  999.0,  999.0,  999.0,  999.0,  999.0
2016/03/16 21:20,  999.0,  999.0,  999.0,  999.0,  999.0,  999.0,  999.0,  999.0,  999.0,    0.1,    0.7,    0.4,    0.6,    0.4,    0.7,    0.7,    0.4,    0.1,   -0.1,   -0.0,    0.2,   -0.0,    0.0,    0.1,    0.1,    1.7,    2.5,    1.1,    0.5,    0.2,    0.1,   -0.0,   -0.0,    0.1,    0.2,    0.2,    0.4,    0.2,   -0.1,   -0.3,   -0.7,  999.0,   -0.1,    0.3,    0.3,   -0.0,   -0.2,    0.1,   -0.1,    0.4,    0.1,    0.2,    0.2,    0.1,    0.0,    0.0,   -0.0,    0.1,    0.1,  999.0,  999.0,   -0.0,    0.1,   -0.3,   -0.0,  999.0,  999.0,  999.0,  999.0,  999.0,  999.0,  999.0,  999.0,  999.0,  999.0,  999.0,  999.0,  999.0,  999.0,  999.0
2016/03/16 21:30,  999.0,  999.0,    0.9,  999.0,  999.0,  999.0,  999.0,  999.0,  999.0,  999.0,    0.1,   -0.2,    0.2,    0.9,    1.6,    1.8,    0.5,    0.2,   -0.0,    0.0,    0.2,   -0.1,    0.1,    0.1,    0.5,    1.0,    3.2,    2.5,    1.3,    1.5,    0.1,    0.3,   -0.0,    0.0,    0.1,    0.4,    0.1,   -0.4,    0.2,    0.0,   -0.7,   -0.9,  999.0,  999.0,    0.1,    0.0,   -0.0,  999.0,   -0.3,  999.0,    0.2,   -0.2,   -0.0,    0.2,   -0.2,   -0.1,   -0.1,    0.0,    0.2,    0.1,  999.0,  999.0,   -0.3,   -0.3,   -0.2,   -0.3,   -0.2,  999.0,   -0.0,  999.0,  999.0,  999.0,  999.0,  999.0,  999.0,  999.0,  999.0,  999.0,  999.0,  999.0
2016/03/16 21:40,  999.0,    0.4,    1.3,    0.6,   -0.3,  999.0,  999.0,  999.0,  999.0,  999.0,  999.0,  999.0,    0.4,    0.6,    0.9,    0.5,    0.6,    0.3,    0.1,    0.0,   -0.3,   -0.2,  999.0,  999.0,    3.5,    3.1,    3.5,    1.5,    0.8,    0.6,    0.2,    0.2,   -0.1,   -0.1,   -0.0,    0.5,   -0.1,    0.3,  999.0,   -0.2,   -0.3,  999.0,    0.1,    0.0,    0.1,    0.2,  999.0,  999.0,  999.0,  999.0,  999.0,    0.1,   -0.1,   -0.2,   -0.1,   -0.6,   -0.1,   -0.6,  999.0,  999.0,   -0.0,  999.0,  999.0,  999.0,    0.2,   -0.1,  999.0,  999.0,  999.0,  999.0,  999.0,  999.0,    0.1,  999.0,  999.0,  999.0,  999.0,  999.0,  999.0,  999.0
2016/03/16 21:50,  999.0,  999.0,    2.8,  999.0,    0.3,   -0.4,  999.0,  999.0,  999.0,    1.4,  999.0,    0.8,    1.2,    2.1,    1.6,    0.6,    0.3,    0.1,    0.2,    0.1,    0.3,  999.0,  999.0,  999.0,    0.5,    0.8,    0.6,    0.2,    0.1,    0.2,   -0.0,    0.1,   -0.0,    0.2,    0.3,    0.1,   -0.3,   -0.2,    0.1,    0.0,   -0.7,   -0.4,   -0.1,   -0.1,   -0.0,   -0.2,  999.0,  999.0,   -0.0,  999.0,    0.1,   -0.1,    0.1,   -0.1,  999.0,  999.0,   -0.2,   -0.0,    0.0,    0.6,    0.1,  999.0,   -0.2,  999.0,    0.2,   -0.3,  999.0,   -0.1,  999.0,  999.0,  999.0,  999.0,  999.0,    0.1,  999.0,  999.0,  999.0,  999.0,  999.0,  999.0
2016/03/16 22:00,  999.0,  999.0,    0.8,    1.3,  999.0,    0.2,    0.8,  999.0,  999.0,    2.7,  999.0,    2.4,    2.1,  999.0,    2.0,    1.0,    0.2,   -0.2,   -0.1,    0.0,    0.1,    0.2,    0.9,    0.7,    0.5,    0.7,    0.9,    0.4,    0.3,    0.1,    0.0,    0.2,   -0.0,    0.1,    0.3,   -0.2,   -0.2,  999.0,   -0.1,    0.3,   -0.3,   -0.3,    0.0,   -0.3,  999.0,   -0.4,  999.0,   -0.2,  999.0,    0.0,    0.1,    0.3,    0.2,    0.2,   -0.0,   -0.1,   -0.2,    0.1,   -0.1,   -0.1,   -0.6,    0.1,    0.0,    0.1,  999.0,  999.0,    0.3,   -0.0,  999.0,  999.0,  999.0,  999.0,  999.0,  999.0,  999.0,  999.0,  999.0,  999.0,  999.0,  999.0
2016/03/16 22:10,  999.0,   -0.7,    0.4,    0.2,    0.2,  999.0,    0.8,    0.9,    1.6,    2.1,    3.8,    3.8,  999.0,    4.4,    5.2,    2.5,    0.4,    0.0,   -0.1,   -0.0,    0.2,    0.0,    0.7,    0.9,    1.4,    2.2,    2.9,    3.1,    0.6,    0.7,    0.6,    0.3,   -0.1,    0.2,   -0.1,   -0.3,    0.1,    0.2,    0.2,   -0.0,   -0.5,   -0.5,   -0.1,    0.2,    0.4,   -0.0,   -0.1,    0.4,    0.0,    0.2,   -0.1,  999.0,    0.3,    0.1,   -0.1,   -0.2,   -0.0,    0.3,    0.3,    0.1,   -0.1,    0.1,   -0.2,   -0.1,    0.4,  999.0,    0.1,  999.0,  999.0,    0.1,  999.0,   -0.1,    0.1,   -0.1,  999.0,  999.0,  999.0,  999.0,  999.0,  999.0
2016/03/16 22:20,  999.0,    0.3,  999.0,  999.0,  999.0,   -0.4,   -0.2,    0.5,    0.6,    2.1,    6.2,    4.1,    5.4,    2.3,  999.0,    2.6,    1.9,    0.9,    0.3,    0.1,   -0.0,    0.0,    1.1,  999.0,    2.8,    1.1,    0.4,    0.1,   -0.0,    0.1,    0.2,    0.1,   -0.0,    0.3,    0.0,  999.0,   -0.2,   -0.1,    0.1,   -0.0,   -0.5,   -0.4,  999.0,  999.0,    0.1,   -0.1,   -0.1,  999.0,    0.2,   -0.1,    0.0,    0.0,   -0.0,    0.0,    0.0,   -0.0,   -0.0,    0.1,   -0.0,   -0.2,    0.0,   -0.2,   -0.2,    0.3,    0.1,   -0.1,   -0.4,   -0.2,  999.0,  999.0,   -0.2,   -0.1,   -0.0,    0.0,  999.0,  999.0,  999.0,  999.0,  999.0,  999.0
2016/03/16 22:30,  999.0,  999.0,    0.0,   -0.1,   -0.2,   -0.3,   -0.6,  999.0,    1.0,    1.2,    2.1,  999.0,  999.0,    1.1,    1.6,    1.6,  999.0,    0.6,    0.2,    0.1,   -0.1,    0.2,  999.0,    2.1,    2.1,    0.3,    0.1,    0.1,    0.3,   -0.0,    0.2,   -0.1,    0.1,   -0.0,    0.2,    0.2,    0.2,  999.0,    0.2,   -0.2,   -0.3,   -0.3,    0.1,    0.1,   -0.1,    0.2,   -0.0,   -0.3,    0.3,   -0.0,   -0.2,   -0.0,   -0.1,   -0.2,    0.1,   -0.1,    0.2,   -0.1,   -0.3,   -0.2,    0.2,    0.1,    0.1,    0.3,   -0.0,  999.0,   -0.1,    0.3,  999.0,  999.0,    0.1,    0.1,    0.1,  999.0,  999.0,  999.0,  999.0,  999.0,  999.0,  999.0
2016/03/16 22:40,  999.0,   -0.1,  999.0,    0.5,    0.9,    0.7,    0.8,    0.5,    1.1,    1.9,  999.0,    2.6,    1.6,   -0.0,    1.1,    0.9,    0.9,    0.5,    0.2,    0.0,    0.0,    0.7,    2.2,    2.3,    0.6,    0.3,    0.1,   -0.0,    0.2,   -0.0,   -0.4,   -0.1,    0.2,    0.1,   -0.3,    0.3,   -0.1,    0.1,    0.4,   -0.0,   -0.6,  999.0,  999.0,    0.1,   -0.3,   -0.0,    0.3,    0.4,   -0.0,   -0.3,    0.2,   -0.1,   -0.1,    0.0,    0.0,   -0.1,    0.0,    0.2,   -0.1,    0.3,    0.2,   -0.2,   -0.1,    0.1,    0.1,    0.4,    0.5,    0.0,  999.0,  999.0,  999.0,    0.0,  999.0,  999.0,  999.0,  999.0,  999.0,  999.0,  999.0,  999.0
2016/03/16 22:50,  999.0,  999.0,    0.5,    1.5,    0.7,    0.1,    0.2,    0.0,    0.0,    0.1,   -0.4,   -0.7,   -0.3,   -0.1,    0.0,   -0.0,    0.1,   -0.1,   -0.1,   -0.1,    0.1,    0.5,    0.6,    0.5,    0.2,    0.0,   -0.1,    0.1,   -0.3,   -0.3,   -0.0,    0.2,    0.2,    0.3,   -0.1,   -0.3,   -0.4,  999.0,    0.1,   -0.2,   -0.3,   -0.1,   -0.0,    0.1,    0.1,  999.0,    0.2,    0.2,    0.1,    0.1,    0.1,   -0.1,   -0.0,    0.2,    0.2,   -0.0,    0.3,   -0.0,  999.0,  999.0,    0.0,    0.2,   -0.3,   -0.2,   -0.5,  999.0,   -0.5,  999.0,   -0.1,   -0.2,  999.0,    0.1,  999.0,  999.0,  999.0,  999.0,  999.0,  999.0,  999.0,  999.0
2016/03/16 23:00,  999.0,    2.3,  999.0,    0.5,    0.2,   -0.1,    0.0,   -0.0,    0.1,    0.1,    0.1,    0.7,    0.3,    0.2,   -0.1,   -0.1,    0.0,   -0.0,   -0.2,   -0.5,   -0.3,   -0.0,   -0.1,   -0.1,    0.2,    0.3,    0.4,    0.1,    0.1,    0.2,    0.3,    0.4,   -0.0,   -0.2,    0.3,    0.0,    0.2,    0.1,   -0.1,   -0.3,   -0.4,   -0.7,    0.1,   -0.2,    0.1,    0.1,   -0.1,    0.3,   -0.1,  999.0,    0.0,    0.0,    0.1,    0.7,    0.9,    1.0,    0.7,    0.6,    0.4,    1.3,  999.0,  999.0,  999.0,   -0.2,   -0.6,  999.0,  999.0,   -1.0,  999.0,  999.0,  999.0,  999.0,  999.0,  999.0,  999.0,  999.0,  999.0,  999.0,  999.0,  999.0
2016/03/16 23:10,  999.0,  999.0,  999.0,  999.0,    0.0,    0.1,   -0.0,   -0.1,    0.0,   -0.1,    1.1,    1.6,    1.6,    0.7,    0.3,    0.2,    0.2,    0.6,    1.3,    0.7,    0.1,    0.1,    0.1,   -0.1,    0.0,    0.1,   -0.1,    0.1,    0.2,    0.1,    0.3,    0.1,   -0.1,    0.3,    0.1,    0.1,  999.0,    0.1,   -0.0,   -0.2,   -0.4,   -0.8,   -0.1,   -0.1,   -0.2,   -0.1,   -0.1,    0.2,  999.0,    0.2,    0.1,   -0.0,    0.7,    1.8,    2.2,    1.9,    0.9,    1.2,    2.0,  999.0,  999.0,  999.0,  999.0,  999.0,  999.0,  999.0,  999.0,  999.0,  999.0,  999.0,  999.0,  999.0,  999.0,  999.0,  999.0,  999.0,  999.0,  999.0,  999.0,  999.0
2016/03/16 23:20,  999.0,  999.0,  999.0,  999.0,    0.8,    0.9,    0.8,    0.6,    0.1,    0.0,   -0.6,    1.5,    0.9,  999.0,    0.3,    1.0,    0.2,    0.3,  999.0,    0.7,    0.5,    0.5,    0.1,    0.4,    0.1,   -0.1,    0.2,    0.2,    0.2,    0.0,   -0.0,    0.0,    0.1,   -0.2,  999.0,   -0.1,   -0.1,   -0.1,   -0.2,   -0.5,  999.0,  999.0,  999.0,   -0.2,  999.0,  999.0,   -0.3,    0.1,    0.0,  999.0,    0.1,    0.6,    1.8,    3.2,    4.5,    4.7,    3.8,  999.0,    4.2,    4.8,    6.3,    5.8,  999.0,  999.0,  999.0,  999.0,  999.0,  999.0,  999.0,  999.0,  999.0,  999.0,  999.0,  999.0,  999.0,  999.0,  999.0,  999.0,  999.0,  999.0
2016/03/16 23:30,  999.0,    0.1,    0.5,    0.6,    0.7,   -0.4,    0.0,    0.3,   -0.3,    0.4,    0.5,    1.1,    1.8,  999.0,  999.0,  999.0,  999.0,    8.2,  999.0,    8.3,  999.0,  999.0,  999.0,   -0.2,    0.2,    0.3,    0.2,    0.2,    0.1,    0.3,    0.2,   -0.1,    0.2,  999.0,    0.7,    0.1,    0.2,    0.1,    0.0,   -0.3,   -0.9,   -0.5,  999.0,   -0.1,  999.0,    0.1,    0.2,   -0.1,    0.2,    0.3,    0.2,    0.1,    0.4,    2.2,  999.0,  999.0,    4.8,    4.5,    4.4,    4.7,    4.6,    5.6,    6.0,    5.0,    4.8,    4.4,  999.0,  999.0,  999.0,  999.0,  999.0,  999.0,  999.0,  999.0,  999.0,  999.0,  999.0,  999.0,  999.0,  999.0
2016/03/16 23:40,  999.0,   -0.1,  999.0,   -0.1,  999.0,    1.0,    0.5,    0.8,    0.8,  999.0,   -0.1,  999.0,  999.0,  999.0,   11.7,   15.4,   16.1,  999.0,   14.5,   15.4,  999.0,  999.0,  999.0,  999.0,    0.6,    0.3,  999.0,  999.0,    0.2,    0.6,  999.0,   -0.1,  999.0,  999.0,  999.0,  999.0,   -0.6,    0.6,   -0.0,   -0.2,   -0.7,   -0.0,    0.6,    0.5,    0.2,  999.0,   -0.1,    0.1,    0.0,  999.0,  999.0,  999.0,    0.8,  999.0,  999.0,    3.8,    3.8,    4.3,    4.4,    4.6,  999.0,    5.2,    5.8,    5.1,  999.0,  999.0,  999.0,  999.0,  999.0,  999.0,  999.0,  999.0,  999.0,  999.0,  999.0,  999.0,  999.0,  999.0,  999.0,  999.0
2016/03/16 23:50,  999.0,   -0.3,   -0.4,    0.1,    0.5,    0.3,    0.5,    0.7,    0.8,   -0.5,    0.6,    0.2,    0.2,    1.7,    1.2,    5.8,  999.0,  999.0,  999.0,    2.8,    5.0,    3.5,    2.5,    0.4,    0.3,    0.2,   -0.0,   -0.0,    0.0,    0.2,    0.0,   -0.0,  999.0,   -0.1,  999.0,   -0.1,    0.0,   -0.1,   -0.2,  999.0,  999.0,   -0.3,  999.0,   -0.2,  999.0,   -0.4,   -0.0,    0.2,   -0.1,  999.0,  999.0,  999.0,    0.8,    2.0,    3.0,    3.3,    3.2,    3.8,    4.2,    3.9,    4.8,    5.1,    4.8,  999.0,  999.0,  999.0,  999.0,  999.0,  999.0,  999.0,  999.0,  999.0,  999.0,  999.0,  999.0,  999.0,  999.0,  999.0,  999.0,  999.0
